Time,TemperatureF,DewpointF,PressureIn,WindDirection,WindDirectionDegrees,WindSpeedMPH,WindSpeedGustMPH,Humidity,HourlyPrecipIn,Conditions,Clouds,dailyrainin,SolarRadiationWatts/m^2,SoftwareType,DateUTC
2013-04-03 00:00:00,32.3,24.9,30.31,ESE,105,3.0,7.0,74,0.00,,,0.00,0,Wunderground v.1.15,2013-04-03 05:00:00,
2013-04-03 00:01:00,32.3,24.9,30.31,ESE,105,2.0,2.0,74,0.00,,,0.00,0,Wunderground v.1.15,2013-04-03 05:01:00,
2013-04-03 00:02:00,32.1,24.7,30.32,ESE,105,0.0,2.0,74,0.00,,,0.00,0,Wunderground v.1.15,2013-04-03 05:02:00,
2013-04-03 00:07:00,31.6,24.3,30.31,ESE,105,0.0,2.0,74,0.00,,,0.00,0,Wunderground v.1.15,2013-04-03 05:07:00,
2013-04-03 00:08:00,31.5,24.2,30.31,ESE,105,1.0,2.0,74,0.00,,,0.00,0,Wunderground v.1.15,2013-04-03 05:08:00,
2013-04-03 00:09:00,31.5,24.5,30.31,ESE,104,2.0,2.0,75,0.00,,,0.00,0,Wunderground v.1.15,2013-04-03 05:09:00,
2013-04-03 00:12:00,31.6,24.6,30.31,ESE,104,2.0,2.0,75,0.00,,,0.00,0,Wunderground v.1.15,2013-04-03 05:12:00,
2013-04-03 00:14:00,31.6,24.3,30.31,ESE,104,2.0,2.0,74,0.00,,,0.00,0,Wunderground v.1.15,2013-04-03 05:14:00,
2013-04-03 00:16:00,31.6,24.3,30.31,ESE,103,2.0,2.0,74,0.00,,,0.00,0,Wunderground v.1.15,2013-04-03 05:16:00,
2013-04-03 00:19:00,31.7,24.4,30.32,ESE,107,2.0,4.0,74,0.00,,,0.00,0,Wunderground v.1.15,2013-04-03 05:19:00,
2013-04-03 00:21:00,31.8,24.5,30.32,ESE,107,2.0,2.0,74,0.00,,,0.00,0,Wunderground v.1.15,2013-04-03 05:21:00,
2013-04-03 00:24:00,31.6,24.3,30.31,ESE,107,3.0,3.0,74,0.00,,,0.00,0,Wunderground v.1.15,2013-04-03 05:24:00,
2013-04-03 00:25:00,31.6,24.6,30.31,ESE,107,1.0,3.0,75,0.00,,,0.00,0,Wunderground v.1.15,2013-04-03 05:25:00,
2013-04-03 00:28:00,31.4,24.4,30.31,ESE,107,2.0,3.0,75,0.00,,,0.00,0,Wunderground v.1.15,2013-04-03 05:28:00,
2013-04-03 00:30:00,31.4,24.4,30.31,ESE,107,2.0,2.0,75,0.00,,,0.00,0,Wunderground v.1.15,2013-04-03 05:30:00,
2013-04-03 00:35:00,31.4,24.4,30.32,ESE,106,4.0,6.0,75,0.00,,,0.00,0,Wunderground v.1.15,2013-04-03 05:35:00,
2013-04-03 00:37:00,31.4,24.4,30.31,East,98,5.0,6.0,75,0.00,,,0.00,0,Wunderground v.1.15,2013-04-03 05:37:00,
2013-04-03 00:42:00,31.2,24.2,30.31,East,95,0.0,3.0,75,0.00,,,0.00,0,Wunderground v.1.15,2013-04-03 05:42:00,
2013-04-03 00:43:00,31.2,24.2,30.31,East,95,0.0,3.0,75,0.00,,,0.00,0,Wunderground v.1.15,2013-04-03 05:43:00,
2013-04-03 00:46:00,31.0,24.0,30.31,East,95,0.0,3.0,75,0.00,,,0.00,0,Wunderground v.1.15,2013-04-03 05:46:00,
2013-04-03 00:48:00,30.9,24.2,30.31,East,95,1.0,3.0,76,0.00,,,0.00,0,Wunderground v.1.15,2013-04-03 05:48:00,
2013-04-03 00:49:00,30.8,24.1,30.31,East,94,1.0,3.0,76,0.00,,,0.00,0,Wunderground v.1.15,2013-04-03 05:49:00,
2013-04-03 00:50:00,30.9,24.2,30.31,East,94,1.0,1.0,76,0.00,,,0.00,0,Wunderground v.1.15,2013-04-03 05:50:00,
2013-04-03 00:54:00,30.8,24.1,30.31,East,94,0.0,1.0,76,0.00,,,0.00,0,Wunderground v.1.15,2013-04-03 05:54:00,
2013-04-03 00:56:00,30.9,24.2,30.31,East,94,1.0,1.0,76,0.00,,,0.00,0,Wunderground v.1.15,2013-04-03 05:56:00,
2013-04-03 00:57:00,30.9,24.2,30.31,East,94,0.0,1.0,76,0.00,,,0.00,0,Wunderground v.1.15,2013-04-03 05:57:00,
2013-04-03 01:01:00,30.7,24.0,30.32,East,94,1.0,2.0,76,0.00,,,0.00,0,Wunderground v.1.15,2013-04-03 06:01:00,
2013-04-03 01:03:00,30.6,23.9,30.32,East,94,1.0,2.0,76,0.00,,,0.00,0,Wunderground v.1.15,2013-04-03 06:03:00,
2013-04-03 01:04:00,30.7,24.0,30.32,East,94,2.0,2.0,76,0.00,,,0.00,0,Wunderground v.1.15,2013-04-03 06:04:00,
2013-04-03 01:09:00,30.7,24.0,30.32,East,94,0.0,2.0,76,0.00,,,0.00,0,Wunderground v.1.15,2013-04-03 06:09:00,
2013-04-03 01:10:00,30.7,24.0,30.32,East,94,0.0,1.0,76,0.00,,,0.00,0,Wunderground v.1.15,2013-04-03 06:10:00,
2013-04-03 01:11:00,30.7,24.0,30.32,East,94,0.0,1.0,76,0.00,,,0.00,0,Wunderground v.1.15,2013-04-03 06:11:00,
2013-04-03 01:17:00,30.4,23.4,30.32,ESE,107,0.0,1.0,75,0.00,,,0.00,0,Wunderground v.1.15,2013-04-03 06:17:00,
2013-04-03 01:18:00,30.3,23.6,30.32,ESE,107,0.0,1.0,76,0.00,,,0.00,0,Wunderground v.1.15,2013-04-03 06:18:00,
2013-04-03 01:19:00,30.3,24.0,30.32,ESE,107,3.0,3.0,77,0.00,,,0.00,0,Wunderground v.1.15,2013-04-03 06:19:00,
2013-04-03 01:23:00,30.3,24.3,30.32,ESE,107,2.0,4.0,78,0.00,,,0.00,0,Wunderground v.1.15,2013-04-03 06:23:00,
2013-04-03 01:25:00,30.3,24.3,30.32,ESE,107,1.0,4.0,78,0.00,,,0.00,0,Wunderground v.1.15,2013-04-03 06:25:00,
2013-04-03 01:26:00,30.3,24.0,30.32,ESE,107,2.0,4.0,77,0.00,,,0.00,0,Wunderground v.1.15,2013-04-03 06:26:00,
2013-04-03 01:29:00,30.1,23.8,30.32,ESE,107,1.0,4.0,77,0.00,,,0.00,0,Wunderground v.1.15,2013-04-03 06:29:00,
2013-04-03 01:30:00,30.1,23.8,30.32,ESE,107,1.0,2.0,77,0.00,,,0.00,0,Wunderground v.1.15,2013-04-03 06:30:00,
2013-04-03 01:34:00,30.2,23.9,30.32,ESE,107,3.0,3.0,77,0.00,,,0.00,0,Wunderground v.1.15,2013-04-03 06:34:00,
2013-04-03 01:35:00,30.2,23.9,30.32,ESE,107,2.0,3.0,77,0.00,,,0.00,0,Wunderground v.1.15,2013-04-03 06:35:00,
2013-04-03 01:36:00,30.3,24.0,30.32,ESE,107,1.0,3.0,77,0.00,,,0.00,0,Wunderground v.1.15,2013-04-03 06:36:00,
2013-04-03 01:39:00,30.1,24.1,30.33,ESE,107,2.0,3.0,78,0.00,,,0.00,0,Wunderground v.1.15,2013-04-03 06:39:00,
2013-04-03 01:41:00,29.8,24.1,30.33,ESE,107,1.0,2.0,79,0.00,,,0.00,0,Wunderground v.1.15,2013-04-03 06:41:00,
2013-04-03 01:42:00,29.6,23.9,30.33,ESE,107,0.0,2.0,79,0.00,,,0.00,0,Wunderground v.1.15,2013-04-03 06:42:00,
2013-04-03 01:43:00,29.4,23.7,30.33,ESE,107,0.0,2.0,79,0.00,,,0.00,0,Wunderground v.1.15,2013-04-03 06:43:00,
2013-04-03 01:47:00,28.5,23.1,30.33,ESE,107,2.0,2.0,80,0.00,,,0.00,0,Wunderground v.1.15,2013-04-03 06:47:00,
2013-04-03 01:49:00,28.7,23.6,30.33,ESE,107,2.0,2.0,81,0.00,,,0.00,0,Wunderground v.1.15,2013-04-03 06:49:00,
2013-04-03 01:53:00,29.4,24.0,30.33,ESE,107,0.0,2.0,80,0.00,,,0.00,0,Wunderground v.1.15,2013-04-03 06:53:00,
2013-04-03 01:55:00,29.2,23.5,30.33,ESE,107,0.0,2.0,79,0.00,,,0.00,0,Wunderground v.1.15,2013-04-03 06:55:00,
2013-04-03 01:58:00,29.3,23.6,30.33,ESE,107,0.0,2.0,79,0.00,,,0.00,0,Wunderground v.1.15,2013-04-03 06:58:00,
2013-04-03 02:01:00,29.2,23.2,30.33,ESE,107,0.0,1.0,78,0.00,,,0.00,0,Wunderground v.1.15,2013-04-03 07:01:00,
2013-04-03 02:02:00,29.1,23.1,30.33,ESE,107,0.0,1.0,78,0.00,,,0.00,0,Wunderground v.1.15,2013-04-03 07:02:00,
2013-04-03 02:04:00,28.6,22.6,30.33,ESE,107,0.0,1.0,78,0.00,,,0.00,0,Wunderground v.1.15,2013-04-03 07:04:00,
2013-04-03 02:07:00,28.9,23.5,30.33,ESE,107,1.0,1.0,80,0.00,,,0.00,0,Wunderground v.1.15,2013-04-03 07:07:00,
2013-04-03 02:08:00,29.3,23.9,30.33,ESE,107,1.0,2.0,80,0.00,,,0.00,0,Wunderground v.1.15,2013-04-03 07:08:00,
2013-04-03 02:10:00,29.6,23.9,30.32,ESE,107,1.0,2.0,79,0.00,,,0.00,0,Wunderground v.1.15,2013-04-03 07:10:00,
2013-04-03 02:12:00,29.7,24.0,30.33,ESE,107,2.0,3.0,79,0.00,,,0.00,0,Wunderground v.1.15,2013-04-03 07:12:00,
2013-04-03 02:15:00,29.8,23.5,30.32,ESE,107,0.0,3.0,77,0.00,,,0.00,0,Wunderground v.1.15,2013-04-03 07:15:00,
2013-04-03 02:16:00,29.8,23.5,30.32,ESE,107,0.0,3.0,77,0.00,,,0.00,0,Wunderground v.1.15,2013-04-03 07:16:00,
2013-04-03 02:17:00,29.3,23.0,30.32,ESE,107,1.0,3.0,77,0.00,,,0.00,0,Wunderground v.1.15,2013-04-03 07:17:00,
2013-04-03 02:18:00,29.2,22.9,30.32,ESE,107,0.0,3.0,77,0.00,,,0.00,0,Wunderground v.1.15,2013-04-03 07:18:00,
2013-04-03 02:21:00,28.9,23.5,30.32,ESE,107,2.0,3.0,80,0.00,,,0.00,0,Wunderground v.1.15,2013-04-03 07:21:00,
2013-04-03 02:22:00,28.9,23.5,30.32,East,100,2.0,3.0,80,0.00,,,0.00,0,Wunderground v.1.15,2013-04-03 07:22:00,
2013-04-03 02:25:00,29.2,23.8,30.32,East,98,2.0,3.0,80,0.00,,,0.00,0,Wunderground v.1.15,2013-04-03 07:25:00,
2013-04-03 02:27:00,29.3,23.6,30.32,East,98,0.0,3.0,79,0.00,,,0.00,0,Wunderground v.1.15,2013-04-03 07:27:00,
2013-04-03 02:28:00,29.3,23.3,30.32,East,98,0.0,3.0,78,0.00,,,0.00,0,Wunderground v.1.15,2013-04-03 07:28:00,
2013-04-03 02:30:00,28.8,23.1,30.32,East,98,0.0,1.0,79,0.00,,,0.00,0,Wunderground v.1.15,2013-04-03 07:30:00,
2013-04-03 02:33:00,28.2,22.5,30.32,East,98,0.0,1.0,79,0.00,,,0.00,0,Wunderground v.1.15,2013-04-03 07:33:00,
2013-04-03 02:34:00,28.2,22.8,30.32,East,98,0.0,1.0,80,0.00,,,0.00,0,Wunderground v.1.15,2013-04-03 07:34:00,
2013-04-03 02:35:00,28.3,23.2,30.32,East,98,0.0,1.0,81,0.00,,,0.00,0,Wunderground v.1.15,2013-04-03 07:35:00,
2013-04-03 02:37:00,28.3,23.2,30.32,East,98,0.0,1.0,81,0.00,,,0.00,0,Wunderground v.1.15,2013-04-03 07:37:00,
2013-04-03 02:38:00,28.5,23.4,30.32,East,98,0.0,1.0,81,0.00,,,0.00,0,Wunderground v.1.15,2013-04-03 07:38:00,
2013-04-03 02:40:00,28.5,23.1,30.32,East,98,0.0,0.0,80,0.00,,,0.00,0,Wunderground v.1.15,2013-04-03 07:40:00,
2013-04-03 02:42:00,28.4,23.0,30.32,East,98,0.0,0.0,80,0.00,,,0.00,0,Wunderground v.1.15,2013-04-03 07:42:00,
2013-04-03 02:43:00,27.9,22.5,30.32,East,98,0.0,0.0,80,0.00,,,0.00,0,Wunderground v.1.15,2013-04-03 07:43:00,
2013-04-03 02:46:00,27.4,22.3,30.32,East,98,0.0,0.0,81,0.00,,,0.00,0,Wunderground v.1.15,2013-04-03 07:46:00,
2013-04-03 02:47:00,27.4,22.6,30.32,East,98,0.0,0.0,82,0.00,,,0.00,0,Wunderground v.1.15,2013-04-03 07:47:00,
2013-04-03 02:49:00,27.4,22.9,30.32,East,98,0.0,0.0,83,0.00,,,0.00,0,Wunderground v.1.15,2013-04-03 07:49:00,
2013-04-03 02:50:00,27.9,23.4,30.32,East,98,0.0,0.0,83,0.00,,,0.00,0,Wunderground v.1.15,2013-04-03 07:50:00,
2013-04-03 02:52:00,28.3,23.5,30.32,East,98,0.0,0.0,82,0.00,,,0.00,0,Wunderground v.1.15,2013-04-03 07:52:00,
2013-04-03 02:53:00,28.5,23.7,30.32,East,98,0.0,0.0,82,0.00,,,0.00,0,Wunderground v.1.15,2013-04-03 07:53:00,
2013-04-03 02:54:00,28.7,23.9,30.32,East,98,0.0,0.0,82,0.00,,,0.00,0,Wunderground v.1.15,2013-04-03 07:54:00,
2013-04-03 02:55:00,28.8,23.4,30.32,East,98,0.0,0.0,80,0.00,,,0.00,0,Wunderground v.1.15,2013-04-03 07:55:00,
2013-04-03 02:57:00,28.5,22.8,30.32,East,98,0.0,0.0,79,0.00,,,0.00,0,Wunderground v.1.15,2013-04-03 07:57:00,
2013-04-03 02:58:00,28.4,23.0,30.32,East,98,0.0,0.0,80,0.00,,,0.00,0,Wunderground v.1.15,2013-04-03 07:58:00,
2013-04-03 02:59:00,28.4,23.0,30.32,East,98,0.0,0.0,80,0.00,,,0.00,0,Wunderground v.1.15,2013-04-03 07:59:00,
2013-04-03 03:01:00,28.4,23.3,30.32,East,98,0.0,0.0,81,0.00,,,0.00,0,Wunderground v.1.15,2013-04-03 08:01:00,
2013-04-03 03:03:00,28.5,23.4,30.32,East,98,0.0,0.0,81,0.00,,,0.00,0,Wunderground v.1.15,2013-04-03 08:03:00,
2013-04-03 03:05:00,28.5,23.4,30.32,East,98,0.0,0.0,81,0.00,,,0.00,0,Wunderground v.1.15,2013-04-03 08:05:00,
2013-04-03 03:07:00,28.3,22.9,30.32,East,98,0.0,0.0,80,0.00,,,0.00,0,Wunderground v.1.15,2013-04-03 08:07:00,
2013-04-03 03:11:00,27.9,22.8,30.32,East,98,0.0,0.0,81,0.00,,,0.00,0,Wunderground v.1.15,2013-04-03 08:11:00,
2013-04-03 03:12:00,27.9,23.1,30.32,East,98,0.0,0.0,82,0.00,,,0.00,0,Wunderground v.1.15,2013-04-03 08:12:00,
2013-04-03 03:13:00,27.9,23.1,30.32,East,98,0.0,0.0,82,0.00,,,0.00,0,Wunderground v.1.15,2013-04-03 08:13:00,
2013-04-03 03:17:00,28.2,23.4,30.32,East,98,0.0,0.0,82,0.00,,,0.00,0,Wunderground v.1.15,2013-04-03 08:17:00,
2013-04-03 03:18:00,28.4,23.6,30.32,East,98,0.0,0.0,82,0.00,,,0.00,0,Wunderground v.1.15,2013-04-03 08:18:00,
2013-04-03 03:22:00,28.0,22.6,30.32,East,98,0.0,0.0,80,0.00,,,0.00,0,Wunderground v.1.15,2013-04-03 08:22:00,
2013-04-03 03:23:00,27.9,22.8,30.32,East,98,3.0,3.0,81,0.00,,,0.00,0,Wunderground v.1.15,2013-04-03 08:23:00,
2013-04-03 03:27:00,28.3,23.5,30.32,East,98,0.0,3.0,82,0.00,,,0.00,0,Wunderground v.1.15,2013-04-03 08:27:00,
2013-04-03 03:28:00,28.3,23.5,30.32,East,98,0.0,3.0,82,0.00,,,0.00,0,Wunderground v.1.15,2013-04-03 08:28:00,
2013-04-03 03:29:00,28.3,23.2,30.33,East,98,0.0,3.0,81,0.00,,,0.00,0,Wunderground v.1.15,2013-04-03 08:29:00,
2013-04-03 03:33:00,27.4,22.3,30.33,East,98,0.0,0.0,81,0.00,,,0.00,0,Wunderground v.1.15,2013-04-03 08:33:00,
2013-04-03 03:34:00,27.3,22.2,30.33,East,98,0.0,0.0,81,0.00,,,0.00,0,Wunderground v.1.15,2013-04-03 08:34:00,
2013-04-03 03:37:00,27.3,22.8,30.33,East,98,0.0,0.0,83,0.00,,,0.00,0,Wunderground v.1.15,2013-04-03 08:37:00,
2013-04-03 03:38:00,27.4,23.2,30.33,East,98,0.0,0.0,84,0.00,,,0.00,0,Wunderground v.1.15,2013-04-03 08:38:00,
2013-04-03 03:39:00,27.6,23.1,30.33,East,98,0.0,0.0,83,0.00,,,0.00,0,Wunderground v.1.15,2013-04-03 08:39:00,
2013-04-03 03:40:00,27.7,23.2,30.33,East,98,0.0,0.0,83,0.00,,,0.00,0,Wunderground v.1.15,2013-04-03 08:40:00,
2013-04-03 03:43:00,27.9,23.4,30.34,East,98,0.0,0.0,83,0.00,,,0.00,0,Wunderground v.1.15,2013-04-03 08:43:00,
2013-04-03 03:44:00,27.9,23.4,30.34,East,98,0.0,0.0,83,0.00,,,0.00,0,Wunderground v.1.15,2013-04-03 08:44:00,
2013-04-03 03:45:00,28.0,23.8,30.34,East,98,2.0,2.0,84,0.00,,,0.00,0,Wunderground v.1.15,2013-04-03 08:45:00,
2013-04-03 03:46:00,28.1,23.9,30.34,East,98,1.0,3.0,84,0.00,,,0.00,0,Wunderground v.1.15,2013-04-03 08:46:00,
2013-04-03 03:50:00,29.2,24.7,30.34,East,98,1.0,1.0,83,0.00,,,0.00,0,Wunderground v.1.15,2013-04-03 08:50:00,
2013-04-03 03:51:00,29.4,24.9,30.34,East,98,0.0,1.0,83,0.00,,,0.00,0,Wunderground v.1.15,2013-04-03 08:51:00,
2013-04-03 03:52:00,29.4,24.9,30.34,East,98,0.0,1.0,83,0.00,,,0.00,0,Wunderground v.1.15,2013-04-03 08:52:00,
2013-04-03 03:57:00,29.5,25.0,30.34,East,98,0.0,1.0,83,0.00,,,0.00,0,Wunderground v.1.15,2013-04-03 08:57:00,
2013-04-03 03:58:00,29.4,25.2,30.34,East,98,0.0,1.0,84,0.00,,,0.00,0,Wunderground v.1.15,2013-04-03 08:58:00,
2013-04-03 04:02:00,29.0,25.1,30.34,East,98,0.0,0.0,85,0.00,,,0.00,0,Wunderground v.1.15,2013-04-03 09:02:00,
2013-04-03 04:03:00,29.0,25.1,30.34,East,98,0.0,0.0,85,0.00,,,0.00,0,Wunderground v.1.15,2013-04-03 09:03:00,
2013-04-03 04:04:00,28.9,25.2,30.34,East,98,0.0,0.0,86,0.00,,,0.00,0,Wunderground v.1.15,2013-04-03 09:04:00,
2013-04-03 04:07:00,28.8,25.1,30.34,East,98,0.0,0.0,86,0.00,,,0.00,0,Wunderground v.1.15,2013-04-03 09:07:00,
2013-04-03 04:09:00,28.8,25.1,30.34,East,98,0.0,0.0,86,0.00,,,0.00,0,Wunderground v.1.15,2013-04-03 09:09:00,
2013-04-03 04:10:00,28.8,25.1,30.34,East,98,0.0,0.0,86,0.00,,,0.00,0,Wunderground v.1.15,2013-04-03 09:10:00,
2013-04-03 04:14:00,28.8,25.4,30.34,East,98,0.0,0.0,87,0.00,,,0.00,0,Wunderground v.1.15,2013-04-03 09:14:00,
2013-04-03 04:15:00,28.8,25.4,30.34,East,98,0.0,0.0,87,0.00,,,0.00,0,Wunderground v.1.15,2013-04-03 09:15:00,
2013-04-03 04:17:00,28.8,25.4,30.34,East,98,0.0,0.0,87,0.00,,,0.00,0,Wunderground v.1.15,2013-04-03 09:17:00,
2013-04-03 04:20:00,28.9,25.2,30.33,East,98,1.0,2.0,86,0.00,,,0.00,0,Wunderground v.1.15,2013-04-03 09:20:00,
2013-04-03 04:21:00,29.0,25.3,30.33,East,98,2.0,2.0,86,0.00,,,0.00,0,Wunderground v.1.15,2013-04-03 09:21:00,
2013-04-03 04:23:00,29.2,25.0,30.33,East,98,0.0,2.0,84,0.00,,,0.00,0,Wunderground v.1.15,2013-04-03 09:23:00,
2013-04-03 04:25:00,29.6,24.8,30.33,East,98,0.0,2.0,82,0.00,,,0.00,0,Wunderground v.1.15,2013-04-03 09:25:00,
2013-04-03 04:26:00,29.6,24.8,30.34,East,98,0.0,2.0,82,0.00,,,0.00,0,Wunderground v.1.15,2013-04-03 09:26:00,
2013-04-03 04:27:00,29.6,24.8,30.34,East,98,0.0,2.0,82,0.00,,,0.00,0,Wunderground v.1.15,2013-04-03 09:27:00,
2013-04-03 04:28:00,29.5,24.7,30.34,East,98,0.0,2.0,82,0.00,,,0.00,0,Wunderground v.1.15,2013-04-03 09:28:00,
2013-04-03 04:31:00,29.0,24.5,30.33,East,98,0.0,0.0,83,0.00,,,0.00,0,Wunderground v.1.15,2013-04-03 09:31:00,
2013-04-03 04:32:00,28.9,24.4,30.33,East,98,0.0,0.0,83,0.00,,,0.00,0,Wunderground v.1.15,2013-04-03 09:32:00,
2013-04-03 04:34:00,29.0,24.2,30.33,East,98,0.0,0.0,82,0.00,,,0.00,0,Wunderground v.1.15,2013-04-03 09:34:00,
2013-04-03 04:36:00,29.1,24.3,30.33,East,98,0.0,0.0,82,0.00,,,0.00,0,Wunderground v.1.15,2013-04-03 09:36:00,
2013-04-03 04:37:00,29.3,24.5,30.33,East,98,0.0,0.0,82,0.00,,,0.00,0,Wunderground v.1.15,2013-04-03 09:37:00,
2013-04-03 04:38:00,29.4,24.3,30.33,East,98,0.0,0.0,81,0.00,,,0.00,0,Wunderground v.1.15,2013-04-03 09:38:00,
2013-04-03 04:39:00,29.5,24.1,30.33,East,98,0.0,0.0,80,0.00,,,0.00,0,Wunderground v.1.15,2013-04-03 09:39:00,
2013-04-03 04:40:00,29.4,24.0,30.33,East,98,0.0,0.0,80,0.00,,,0.00,0,Wunderground v.1.15,2013-04-03 09:40:00,
2013-04-03 04:42:00,29.2,23.8,30.33,East,98,0.0,0.0,80,0.00,,,0.00,0,Wunderground v.1.15,2013-04-03 09:42:00,
2013-04-03 04:44:00,28.9,23.5,30.33,East,98,0.0,0.0,80,0.00,,,0.00,0,Wunderground v.1.15,2013-04-03 09:44:00,
2013-04-03 04:45:00,28.7,23.6,30.33,East,98,0.0,0.0,81,0.00,,,0.00,0,Wunderground v.1.15,2013-04-03 09:45:00,
2013-04-03 04:46:00,28.5,23.4,30.33,East,98,0.0,0.0,81,0.00,,,0.00,0,Wunderground v.1.15,2013-04-03 09:46:00,
2013-04-03 04:48:00,28.3,23.5,30.33,East,98,0.0,0.0,82,0.00,,,0.00,0,Wunderground v.1.15,2013-04-03 09:48:00,
2013-04-03 04:50:00,28.3,23.5,30.33,East,98,0.0,0.0,82,0.00,,,0.00,0,Wunderground v.1.15,2013-04-03 09:50:00,
2013-04-03 04:52:00,28.5,23.7,30.33,East,98,0.0,0.0,82,0.00,,,0.00,0,Wunderground v.1.15,2013-04-03 09:52:00,
2013-04-03 04:53:00,28.6,23.8,30.33,East,98,0.0,0.0,82,0.00,,,0.00,0,Wunderground v.1.15,2013-04-03 09:53:00,
2013-04-03 04:56:00,28.7,23.9,30.33,East,98,1.0,1.0,82,0.00,,,0.00,0,Wunderground v.1.15,2013-04-03 09:56:00,
2013-04-03 04:58:00,28.8,24.0,30.33,East,98,0.0,1.0,82,0.00,,,0.00,0,Wunderground v.1.15,2013-04-03 09:58:00,
2013-04-03 04:59:00,28.8,24.0,30.33,East,98,0.0,1.0,82,0.00,,,0.00,0,Wunderground v.1.15,2013-04-03 09:59:00,
2013-04-03 05:00:00,28.9,24.1,30.33,East,98,0.0,0.0,82,0.00,,,0.00,0,Wunderground v.1.15,2013-04-03 10:00:00,
2013-04-03 05:01:00,28.8,23.7,30.34,East,98,0.0,0.0,81,0.00,,,0.00,0,Wunderground v.1.15,2013-04-03 10:01:00,
2013-04-03 05:03:00,28.6,23.5,30.34,East,98,0.0,0.0,81,0.00,,,0.00,0,Wunderground v.1.15,2013-04-03 10:03:00,
2013-04-03 05:05:00,28.2,23.1,30.34,East,98,0.0,0.0,81,0.00,,,0.00,0,Wunderground v.1.15,2013-04-03 10:05:00,
2013-04-03 05:06:00,27.9,22.8,30.34,East,98,0.0,0.0,81,0.00,,,0.00,0,Wunderground v.1.15,2013-04-03 10:06:00,
2013-04-03 05:08:00,27.6,22.8,30.34,East,98,0.0,0.0,82,0.00,,,0.00,0,Wunderground v.1.15,2013-04-03 10:08:00,
2013-04-03 05:09:00,27.4,22.9,30.34,East,98,0.0,0.0,83,0.00,,,0.00,0,Wunderground v.1.15,2013-04-03 10:09:00,
2013-04-03 05:12:00,27.5,23.3,30.34,East,98,0.0,0.0,84,0.00,,,0.00,0,Wunderground v.1.15,2013-04-03 10:12:00,
2013-04-03 05:13:00,27.6,23.4,30.34,East,98,0.0,0.0,84,0.00,,,0.00,0,Wunderground v.1.15,2013-04-03 10:13:00,
2013-04-03 05:14:00,27.6,23.4,30.34,East,98,0.0,0.0,84,0.00,,,0.00,0,Wunderground v.1.15,2013-04-03 10:14:00,
2013-04-03 05:18:00,27.9,23.7,30.34,East,98,0.0,0.0,84,0.00,,,0.00,0,Wunderground v.1.15,2013-04-03 10:18:00,
2013-04-03 05:19:00,28.2,24.0,30.34,East,98,0.0,0.0,84,0.00,,,0.00,0,Wunderground v.1.15,2013-04-03 10:19:00,
2013-04-03 05:20:00,28.3,24.1,30.34,East,98,0.0,0.0,84,0.00,,,0.00,0,Wunderground v.1.15,2013-04-03 10:20:00,
2013-04-03 05:23:00,28.7,24.2,30.34,East,98,0.0,0.0,83,0.00,,,0.00,0,Wunderground v.1.15,2013-04-03 10:23:00,
2013-04-03 05:25:00,28.8,24.3,30.34,East,98,0.0,0.0,83,0.00,,,0.00,0,Wunderground v.1.15,2013-04-03 10:25:00,
2013-04-03 05:26:00,28.8,24.3,30.34,East,98,0.0,0.0,83,0.00,,,0.00,0,Wunderground v.1.15,2013-04-03 10:26:00,
2013-04-03 05:29:00,28.8,24.0,30.34,East,98,0.0,0.0,82,0.00,,,0.00,0,Wunderground v.1.15,2013-04-03 10:29:00,
2013-04-03 05:30:00,28.8,24.0,30.34,East,98,0.0,0.0,82,0.00,,,0.00,0,Wunderground v.1.15,2013-04-03 10:30:00,
2013-04-03 05:31:00,28.7,23.9,30.34,East,98,0.0,0.0,82,0.00,,,0.00,0,Wunderground v.1.15,2013-04-03 10:31:00,
2013-04-03 05:32:00,28.7,23.9,30.34,East,98,0.0,0.0,82,0.00,,,0.00,0,Wunderground v.1.15,2013-04-03 10:32:00,
2013-04-03 05:36:00,28.3,23.5,30.35,East,98,0.0,0.0,82,0.00,,,0.00,0,Wunderground v.1.15,2013-04-03 10:36:00,
2013-04-03 05:37:00,27.9,23.1,30.35,East,98,0.0,0.0,82,0.00,,,0.00,0,Wunderground v.1.15,2013-04-03 10:37:00,
2013-04-03 05:41:00,27.6,23.1,30.35,East,98,0.0,0.0,83,0.00,,,0.00,0,Wunderground v.1.15,2013-04-03 10:41:00,
2013-04-03 05:42:00,27.6,23.4,30.35,East,98,0.0,0.0,84,0.00,,,0.00,0,Wunderground v.1.15,2013-04-03 10:42:00,
2013-04-03 05:43:00,27.6,23.4,30.35,East,98,0.0,0.0,84,0.00,,,0.00,0,Wunderground v.1.15,2013-04-03 10:43:00,
2013-04-03 05:46:00,27.7,23.5,30.35,East,98,0.0,0.0,84,0.00,,,0.00,0,Wunderground v.1.15,2013-04-03 10:46:00,
2013-04-03 05:49:00,27.7,23.5,30.35,East,98,0.0,0.0,84,0.00,,,0.00,0,Wunderground v.1.15,2013-04-03 10:49:00,
2013-04-03 05:50:00,27.6,23.4,30.35,East,98,0.0,0.0,84,0.00,,,0.00,0,Wunderground v.1.15,2013-04-03 10:50:00,
2013-04-03 05:52:00,27.7,23.5,30.35,East,98,1.0,1.0,84,0.00,,,0.00,0,Wunderground v.1.15,2013-04-03 10:52:00,
2013-04-03 05:54:00,27.9,23.7,30.36,East,98,0.0,2.0,84,0.00,,,0.00,0,Wunderground v.1.15,2013-04-03 10:54:00,
2013-04-03 05:55:00,27.9,23.7,30.36,East,98,0.0,2.0,84,0.00,,,0.00,0,Wunderground v.1.15,2013-04-03 10:55:00,
2013-04-03 05:58:00,27.8,23.3,30.36,East,98,1.0,2.0,83,0.00,,,0.00,0,Wunderground v.1.15,2013-04-03 10:58:00,
2013-04-03 05:59:00,27.8,23.3,30.36,East,98,2.0,2.0,83,0.00,,,0.00,0,Wunderground v.1.15,2013-04-03 10:59:00,
2013-04-03 06:00:00,27.8,23.3,30.36,East,98,1.0,1.0,83,0.00,,,0.00,0,Wunderground v.1.15,2013-04-03 11:00:00,
2013-04-03 06:03:00,27.6,23.1,30.35,East,98,1.0,2.0,83,0.00,,,0.00,0,Wunderground v.1.15,2013-04-03 11:03:00,
2013-04-03 06:05:00,27.6,23.1,30.35,East,98,1.0,2.0,83,0.00,,,0.00,0,Wunderground v.1.15,2013-04-03 11:05:00,
2013-04-03 06:07:00,27.5,23.3,30.35,East,98,1.0,2.0,84,0.00,,,0.00,0,Wunderground v.1.15,2013-04-03 11:07:00,
2013-04-03 06:08:00,27.3,22.8,30.36,East,98,2.0,3.0,83,0.00,,,0.00,0,Wunderground v.1.15,2013-04-03 11:08:00,
2013-04-03 06:10:00,27.0,22.8,30.36,East,98,0.0,1.0,84,0.00,,,0.00,0,Wunderground v.1.15,2013-04-03 11:10:00,
2013-04-03 06:12:00,26.9,22.7,30.36,East,98,1.0,2.0,84,0.00,,,0.00,0,Wunderground v.1.15,2013-04-03 11:12:00,
2013-04-03 06:14:00,26.9,23.0,30.35,East,98,1.0,2.0,85,0.00,,,0.00,0,Wunderground v.1.15,2013-04-03 11:14:00,
2013-04-03 06:17:00,26.9,23.0,30.35,East,98,2.0,3.0,85,0.00,,,0.00,0,Wunderground v.1.15,2013-04-03 11:17:00,
2013-04-03 06:19:00,27.0,23.1,30.35,East,98,2.0,3.0,85,0.00,,,0.00,0,Wunderground v.1.15,2013-04-03 11:19:00,
2013-04-03 06:20:00,27.2,23.3,30.36,East,98,2.0,2.0,85,0.00,,,0.00,0,Wunderground v.1.15,2013-04-03 11:20:00,
2013-04-03 06:22:00,27.4,23.5,30.36,East,98,3.0,3.0,85,0.00,,,0.00,0,Wunderground v.1.15,2013-04-03 11:22:00,
2013-04-03 06:24:00,27.5,23.3,30.36,East,97,3.0,3.0,84,0.00,,,0.00,0,Wunderground v.1.15,2013-04-03 11:24:00,
2013-04-03 06:26:00,27.4,23.2,30.36,East,96,3.0,3.0,84,0.00,,,0.00,0,Wunderground v.1.15,2013-04-03 11:26:00,
2013-04-03 06:27:00,27.4,22.9,30.36,East,93,5.0,5.0,83,0.00,,,0.00,0,Wunderground v.1.15,2013-04-03 11:27:00,
2013-04-03 06:29:00,27.4,22.9,30.36,East,88,1.0,5.0,83,0.00,,,0.00,0,Wunderground v.1.15,2013-04-03 11:29:00,
2013-04-03 06:31:00,27.5,23.3,30.36,East,88,1.0,3.0,84,0.00,,,0.00,0,Wunderground v.1.15,2013-04-03 11:31:00,
2013-04-03 06:33:00,27.5,23.0,30.36,East,87,3.0,3.0,83,0.00,,,0.00,0,Wunderground v.1.15,2013-04-03 11:33:00,
2013-04-03 06:34:00,27.5,23.0,30.36,East,86,2.0,3.0,83,0.00,,,0.00,0,Wunderground v.1.15,2013-04-03 11:34:00,
2013-04-03 06:35:00,27.5,23.0,30.36,East,84,5.0,5.0,83,0.00,,,0.00,0,Wunderground v.1.15,2013-04-03 11:35:00,
2013-04-03 06:37:00,27.5,23.0,30.36,East,84,3.0,5.0,83,0.00,,,0.00,0,Wunderground v.1.15,2013-04-03 11:37:00,
2013-04-03 06:38:00,27.5,23.0,30.36,East,82,5.0,5.0,83,0.00,,,0.00,0,Wunderground v.1.15,2013-04-03 11:38:00,
2013-04-03 06:41:00,27.5,23.0,30.36,East,82,2.0,3.0,83,0.00,,,0.00,0,Wunderground v.1.15,2013-04-03 11:41:00,
2013-04-03 06:42:00,27.5,23.0,30.36,East,81,2.0,3.0,83,0.00,,,0.00,0,Wunderground v.1.15,2013-04-03 11:42:00,
2013-04-03 06:43:00,27.4,22.9,30.36,East,81,2.0,3.0,83,0.00,,,0.00,0,Wunderground v.1.15,2013-04-03 11:43:00,
2013-04-03 06:46:00,27.4,22.9,30.36,East,81,2.0,3.0,83,0.00,,,0.00,5,Wunderground v.1.15,2013-04-03 11:46:00,
2013-04-03 06:48:00,27.4,22.9,30.36,East,81,2.0,3.0,83,0.00,,,0.00,5,Wunderground v.1.15,2013-04-03 11:48:00,
2013-04-03 06:49:00,27.4,22.9,30.36,East,81,3.0,3.0,83,0.00,,,0.00,5,Wunderground v.1.15,2013-04-03 11:49:00,
2013-04-03 06:51:00,27.5,23.0,30.36,ENE,78,2.0,3.0,83,0.00,,,0.00,5,Wunderground v.1.15,2013-04-03 11:51:00,
2013-04-03 06:54:00,27.6,23.1,30.36,East,92,2.0,6.0,83,0.00,,,0.00,0,Wunderground v.1.15,2013-04-03 11:54:00,
2013-04-03 06:55:00,27.6,22.8,30.36,East,94,3.0,6.0,82,0.00,,,0.00,5,Wunderground v.1.15,2013-04-03 11:55:00,
2013-04-03 06:58:00,27.6,22.8,30.36,East,91,1.0,6.0,82,0.00,,,0.00,5,Wunderground v.1.15,2013-04-03 11:58:00,
2013-04-03 06:59:00,27.6,22.8,30.36,East,91,3.0,6.0,82,0.00,,,0.00,5,Wunderground v.1.15,2013-04-03 11:59:00,
2013-04-03 07:01:00,27.6,22.8,30.36,East,92,1.0,3.0,82,0.00,,,0.00,5,Wunderground v.1.15,2013-04-03 12:01:00,
2013-04-03 07:03:00,27.5,22.7,30.36,East,92,1.0,3.0,82,0.00,,,0.00,7,Wunderground v.1.15,2013-04-03 12:03:00,
2013-04-03 07:04:00,27.5,22.7,30.36,East,92,2.0,3.0,82,0.00,,,0.00,7,Wunderground v.1.15,2013-04-03 12:04:00,
2013-04-03 07:05:00,27.4,22.6,30.36,East,92,2.0,3.0,82,0.00,,,0.00,7,Wunderground v.1.15,2013-04-03 12:05:00,
2013-04-03 07:09:00,27.3,22.5,30.37,East,92,3.0,3.0,82,0.00,,,0.00,12,Wunderground v.1.15,2013-04-03 12:09:00,
2013-04-03 07:10:00,27.3,22.5,30.37,East,92,1.0,3.0,82,0.00,,,0.00,12,Wunderground v.1.15,2013-04-03 12:10:00,
2013-04-03 07:11:00,27.3,22.5,30.37,East,92,2.0,3.0,82,0.00,,,0.00,16,Wunderground v.1.15,2013-04-03 12:11:00,
2013-04-03 07:14:00,27.3,22.5,30.36,East,92,3.0,3.0,82,0.00,,,0.00,16,Wunderground v.1.15,2013-04-03 12:14:00,
2013-04-03 07:18:00,27.4,22.6,30.37,East,92,1.0,3.0,82,0.00,,,0.00,26,Wunderground v.1.15,2013-04-03 12:18:00,
2013-04-03 07:19:00,27.4,22.6,30.37,East,92,1.0,3.0,82,0.00,,,0.00,28,Wunderground v.1.15,2013-04-03 12:19:00,
2013-04-03 07:22:00,27.5,22.7,30.37,East,92,3.0,3.0,82,0.00,,,0.00,35,Wunderground v.1.15,2013-04-03 12:22:00,
2013-04-03 07:23:00,27.5,22.7,30.37,East,92,1.0,3.0,82,0.00,,,0.00,37,Wunderground v.1.15,2013-04-03 12:23:00,
2013-04-03 07:25:00,27.5,22.7,30.37,East,92,1.0,3.0,82,0.00,,,0.00,37,Wunderground v.1.15,2013-04-03 12:25:00,
2013-04-03 07:27:00,27.5,22.7,30.37,East,92,0.0,3.0,82,0.00,,,0.00,44,Wunderground v.1.15,2013-04-03 12:27:00,
2013-04-03 07:29:00,27.5,22.7,30.37,East,92,0.0,3.0,82,0.00,,,0.00,47,Wunderground v.1.15,2013-04-03 12:29:00,
2013-04-03 07:30:00,27.6,22.8,30.37,East,92,1.0,1.0,82,0.00,,,0.00,49,Wunderground v.1.15,2013-04-03 12:30:00,
2013-04-03 07:33:00,27.7,22.9,30.37,East,92,2.0,2.0,82,0.00,,,0.00,54,Wunderground v.1.15,2013-04-03 12:33:00,
2013-04-03 07:34:00,27.7,22.9,30.37,East,92,2.0,2.0,82,0.00,,,0.00,54,Wunderground v.1.15,2013-04-03 12:34:00,
2013-04-03 07:35:00,27.7,22.9,30.37,East,92,1.0,2.0,82,0.00,,,0.00,60,Wunderground v.1.15,2013-04-03 12:35:00,
2013-04-03 07:40:00,28.0,23.2,30.37,East,92,1.0,2.0,82,0.00,,,0.00,67,Wunderground v.1.15,2013-04-03 12:40:00,
2013-04-03 07:41:00,28.0,23.2,30.37,East,92,2.0,2.0,82,0.00,,,0.00,70,Wunderground v.1.15,2013-04-03 12:41:00,
2013-04-03 07:42:00,28.0,23.2,30.37,East,92,3.0,3.0,82,0.00,,,0.00,70,Wunderground v.1.15,2013-04-03 12:42:00,
2013-04-03 07:46:00,28.3,23.5,30.37,East,93,2.0,5.0,82,0.00,,,0.00,83,Wunderground v.1.15,2013-04-03 12:46:00,
2013-04-03 07:47:00,28.3,23.5,30.37,East,93,2.0,5.0,82,0.00,,,0.00,84,Wunderground v.1.15,2013-04-03 12:47:00,
2013-04-03 07:52:00,28.5,23.4,30.37,East,95,3.0,3.0,81,0.00,,,0.00,93,Wunderground v.1.15,2013-04-03 12:52:00,
2013-04-03 07:53:00,28.6,23.5,30.37,East,95,2.0,3.0,81,0.00,,,0.00,93,Wunderground v.1.15,2013-04-03 12:53:00,
2013-04-03 07:57:00,28.8,23.7,30.37,East,96,3.0,3.0,81,0.00,,,0.00,102,Wunderground v.1.15,2013-04-03 12:57:00,
2013-04-03 07:58:00,28.8,23.7,30.37,East,96,2.0,3.0,81,0.00,,,0.00,102,Wunderground v.1.15,2013-04-03 12:58:00,
2013-04-03 07:59:00,28.8,23.7,30.37,East,96,2.0,3.0,81,0.00,,,0.00,105,Wunderground v.1.15,2013-04-03 12:59:00,
2013-04-03 08:04:00,29.0,23.6,30.37,ESE,119,2.0,5.0,80,0.00,,,0.00,116,Wunderground v.1.15,2013-04-03 13:04:00,
2013-04-03 08:05:00,29.1,24.0,30.38,SE,125,5.0,5.0,81,0.00,,,0.00,116,Wunderground v.1.15,2013-04-03 13:05:00,
2013-04-03 08:06:00,29.2,23.8,30.38,SE,125,3.0,5.0,80,0.00,,,0.00,127,Wunderground v.1.15,2013-04-03 13:06:00,
2013-04-03 08:07:00,29.3,23.9,30.38,SE,126,4.0,5.0,80,0.00,,,0.00,127,Wunderground v.1.15,2013-04-03 13:07:00,
2013-04-03 08:10:00,29.4,23.7,30.38,SE,126,4.0,6.0,79,0.00,,,0.00,130,Wunderground v.1.15,2013-04-03 13:10:00,
2013-04-03 08:12:00,29.6,23.9,30.38,SE,130,4.0,4.0,79,0.00,,,0.00,130,Wunderground v.1.15,2013-04-03 13:12:00,
2013-04-03 08:13:00,29.7,24.0,30.38,SE,128,3.0,4.0,79,0.00,,,0.00,141,Wunderground v.1.15,2013-04-03 13:13:00,
2013-04-03 08:15:00,29.8,24.1,30.38,SE,127,4.0,4.0,79,0.00,,,0.00,148,Wunderground v.1.15,2013-04-03 13:15:00,
2013-04-03 08:17:00,30.0,24.3,30.38,ESE,116,2.0,4.0,79,0.00,,,0.00,151,Wunderground v.1.15,2013-04-03 13:17:00,
2013-04-03 08:18:00,30.1,24.4,30.38,SE,127,3.0,5.0,79,0.00,,,0.00,155,Wunderground v.1.15,2013-04-03 13:18:00,
2013-04-03 08:22:00,30.3,24.0,30.37,ESE,114,4.0,7.0,77,0.00,,,0.00,155,Wunderground v.1.15,2013-04-03 13:22:00,
2013-04-03 08:24:00,30.3,24.0,30.37,ESE,109,3.0,8.0,77,0.00,,,0.00,155,Wunderground v.1.15,2013-04-03 13:24:00,
2013-04-03 08:25:00,30.3,23.6,30.37,ESE,119,4.0,8.0,76,0.00,,,0.00,160,Wunderground v.1.15,2013-04-03 13:25:00,
2013-04-03 08:28:00,30.4,23.7,30.37,ESE,121,7.0,8.0,76,0.00,,,0.00,156,Wunderground v.1.15,2013-04-03 13:28:00,
2013-04-03 08:29:00,30.4,23.7,30.37,ESE,116,4.0,8.0,76,0.00,,,0.00,165,Wunderground v.1.15,2013-04-03 13:29:00,
2013-04-03 08:30:00,30.4,23.7,30.37,ESE,105,3.0,5.0,76,0.00,,,0.00,167,Wunderground v.1.15,2013-04-03 13:30:00,
2013-04-03 08:31:00,30.5,23.8,30.37,ESE,123,4.0,5.0,76,0.00,,,0.00,167,Wunderground v.1.15,2013-04-03 13:31:00,
2013-04-03 08:35:00,30.6,23.9,30.37,ESE,117,4.0,8.0,76,0.00,,,0.00,186,Wunderground v.1.15,2013-04-03 13:35:00,
2013-04-03 08:37:00,30.6,23.9,30.37,ESE,123,7.0,8.0,76,0.00,,,0.00,186,Wunderground v.1.15,2013-04-03 13:37:00,
2013-04-03 08:39:00,30.8,23.8,30.37,SE,128,4.0,9.0,75,0.00,,,0.00,199,Wunderground v.1.15,2013-04-03 13:39:00,
2013-04-03 08:40:00,30.9,23.9,30.37,ESE,122,5.0,8.0,75,0.00,,,0.00,200,Wunderground v.1.15,2013-04-03 13:40:00,
2013-04-03 08:42:00,31.0,23.7,30.37,ESE,121,7.0,8.0,74,0.00,,,0.00,207,Wunderground v.1.15,2013-04-03 13:42:00,
2013-04-03 08:44:00,31.1,23.8,30.37,SE,135,6.0,9.0,74,0.00,,,0.00,209,Wunderground v.1.15,2013-04-03 13:44:00,
2013-04-03 08:46:00,31.1,23.8,30.37,ESE,121,4.0,9.0,74,0.00,,,0.00,216,Wunderground v.1.15,2013-04-03 13:46:00,
2013-04-03 08:47:00,31.2,24.2,30.37,SE,125,4.0,9.0,75,0.00,,,0.00,216,Wunderground v.1.15,2013-04-03 13:47:00,
2013-04-03 08:50:00,31.3,24.3,30.37,SE,146,7.0,7.0,75,0.00,,,0.00,234,Wunderground v.1.15,2013-04-03 13:50:00,
2013-04-03 08:52:00,31.5,24.2,30.37,ESE,115,4.0,7.0,74,0.00,,,0.00,236,Wunderground v.1.15,2013-04-03 13:52:00,
2013-04-03 08:53:00,31.5,24.2,30.37,SE,128,5.0,7.0,74,0.00,,,0.00,236,Wunderground v.1.15,2013-04-03 13:53:00,
2013-04-03 08:55:00,31.9,24.9,30.37,ESE,117,4.0,7.0,75,0.00,,,0.00,232,Wunderground v.1.15,2013-04-03 13:55:00,
2013-04-03 08:57:00,32.0,24.6,30.37,SE,135,5.0,7.0,74,0.00,,,0.00,227,Wunderground v.1.15,2013-04-03 13:57:00,
2013-04-03 08:58:00,32.1,24.4,30.37,SSE,147,8.0,11.0,73,0.00,,,0.00,237,Wunderground v.1.15,2013-04-03 13:58:00,
2013-04-03 09:00:00,32.2,24.2,30.37,SE,135,7.0,7.0,72,0.00,,,0.00,243,Wunderground v.1.15,2013-04-03 14:00:00,
2013-04-03 09:02:00,32.3,24.3,30.37,ESE,119,5.0,7.0,72,0.00,,,0.00,246,Wunderground v.1.15,2013-04-03 14:02:00,
2013-04-03 09:05:00,32.7,24.3,30.37,ESE,120,5.0,8.0,71,0.00,,,0.00,265,Wunderground v.1.15,2013-04-03 14:05:00,
2013-04-03 09:06:00,32.8,24.4,30.37,SE,130,9.0,10.0,71,0.00,,,0.00,271,Wunderground v.1.15,2013-04-03 14:06:00,
2013-04-03 09:07:00,32.8,23.7,30.37,ESE,118,7.0,10.0,69,0.00,,,0.00,271,Wunderground v.1.15,2013-04-03 14:07:00,
2013-04-03 09:08:00,33.0,24.3,30.37,ESE,121,11.0,11.0,70,0.00,,,0.00,278,Wunderground v.1.15,2013-04-03 14:08:00,
2013-04-03 09:12:00,33.0,23.6,30.37,SE,127,6.0,11.0,68,0.00,,,0.00,290,Wunderground v.1.15,2013-04-03 14:12:00,
2013-04-03 09:14:00,33.1,23.7,30.37,SE,134,6.0,11.0,68,0.00,,,0.00,276,Wunderground v.1.15,2013-04-03 14:14:00,
2013-04-03 09:18:00,33.5,24.1,30.37,ESE,116,10.0,11.0,68,0.00,,,0.00,304,Wunderground v.1.15,2013-04-03 14:18:00,
2013-04-03 09:19:00,33.6,23.8,30.37,SE,144,7.0,11.0,67,0.00,,,0.00,311,Wunderground v.1.15,2013-04-03 14:19:00,
2013-04-03 09:24:00,33.7,23.5,30.37,SSE,150,9.0,13.0,66,0.00,,,0.00,311,Wunderground v.1.15,2013-04-03 14:24:00,
2013-04-03 09:25:00,33.7,23.2,30.37,SE,136,8.0,13.0,65,0.00,,,0.00,311,Wunderground v.1.15,2013-04-03 14:25:00,
2013-04-03 09:30:00,33.7,23.5,30.37,ESE,117,8.0,13.0,66,0.00,,,0.00,318,Wunderground v.1.15,2013-04-03 14:30:00,
2013-04-03 09:31:00,33.9,23.4,30.37,East,101,9.0,10.0,65,0.00,,,0.00,318,Wunderground v.1.15,2013-04-03 14:31:00,
2013-04-03 09:33:00,33.9,23.4,30.37,SE,128,8.0,10.0,65,0.00,,,0.00,327,Wunderground v.1.15,2013-04-03 14:33:00,
2013-04-03 09:35:00,33.9,23.4,30.37,SSE,153,8.0,10.0,65,0.00,,,0.00,330,Wunderground v.1.15,2013-04-03 14:35:00,
2013-04-03 09:38:00,34.1,23.6,30.37,SE,143,8.0,10.0,65,0.00,,,0.00,330,Wunderground v.1.15,2013-04-03 14:38:00,
2013-04-03 09:39:00,34.3,24.1,30.37,ESE,116,8.0,10.0,66,0.00,,,0.00,332,Wunderground v.1.15,2013-04-03 14:39:00,
2013-04-03 09:41:00,34.3,23.7,30.36,ESE,111,5.0,8.0,65,0.00,,,0.00,336,Wunderground v.1.15,2013-04-03 14:41:00,
2013-04-03 09:44:00,34.4,23.5,30.36,ESE,107,9.0,11.0,64,0.00,,,0.00,343,Wunderground v.1.15,2013-04-03 14:44:00,
2013-04-03 09:45:00,34.4,23.1,30.36,ESE,107,8.0,11.0,63,0.00,,,0.00,350,Wunderground v.1.15,2013-04-03 14:45:00,
2013-04-03 09:46:00,34.4,23.5,30.36,SE,126,5.0,11.0,64,0.00,,,0.00,353,Wunderground v.1.15,2013-04-03 14:46:00,
2013-04-03 09:47:00,34.5,23.9,30.36,SE,138,7.0,11.0,65,0.00,,,0.00,359,Wunderground v.1.15,2013-04-03 14:47:00,
2013-04-03 09:49:00,34.6,23.7,30.36,ESE,108,8.0,11.0,64,0.00,,,0.00,367,Wunderground v.1.15,2013-04-03 14:49:00,
2013-04-03 09:50:00,34.6,23.7,30.36,SE,124,11.0,11.0,64,0.00,,,0.00,367,Wunderground v.1.15,2013-04-03 14:50:00,
2013-04-03 09:52:00,34.7,23.4,30.36,ESE,113,8.0,11.0,63,0.00,,,0.00,371,Wunderground v.1.15,2013-04-03 14:52:00,
2013-04-03 09:53:00,34.7,23.4,30.36,SE,128,6.0,11.0,63,0.00,,,0.00,373,Wunderground v.1.15,2013-04-03 14:53:00,
2013-04-03 09:57:00,34.8,23.5,30.36,ESE,109,10.0,12.0,63,0.00,,,0.00,378,Wunderground v.1.15,2013-04-03 14:57:00,
2013-04-03 09:58:00,35.0,23.7,30.36,SE,125,6.0,12.0,63,0.00,,,0.00,388,Wunderground v.1.15,2013-04-03 14:58:00,
2013-04-03 09:59:00,34.9,23.6,30.36,ESE,117,10.0,12.0,63,0.00,,,0.00,401,Wunderground v.1.15,2013-04-03 14:59:00,
2013-04-03 10:02:00,35.1,24.1,30.36,ESE,114,9.0,12.0,64,0.00,,,0.00,403,Wunderground v.1.15,2013-04-03 15:02:00,
2013-04-03 10:03:00,35.2,23.9,30.36,ESE,117,10.0,12.0,63,0.00,,,0.00,403,Wunderground v.1.15,2013-04-03 15:03:00,
2013-04-03 10:04:00,35.2,23.5,30.36,SE,144,9.0,12.0,62,0.00,,,0.00,403,Wunderground v.1.15,2013-04-03 15:04:00,
2013-04-03 10:06:00,35.3,24.0,30.36,SE,125,11.0,12.0,63,0.00,,,0.00,410,Wunderground v.1.15,2013-04-03 15:06:00,
2013-04-03 10:07:00,35.3,24.0,30.36,ESE,102,5.0,12.0,63,0.00,,,0.00,397,Wunderground v.1.15,2013-04-03 15:07:00,
2013-04-03 10:09:00,35.5,24.1,30.37,ESE,113,12.0,12.0,63,0.00,,,0.00,408,Wunderground v.1.15,2013-04-03 15:09:00,
2013-04-03 10:10:00,35.5,23.8,30.36,SE,125,8.0,9.0,62,0.00,,,0.00,415,Wunderground v.1.15,2013-04-03 15:10:00,
2013-04-03 10:12:00,35.5,23.4,30.36,ESE,121,8.0,13.0,61,0.00,,,0.00,417,Wunderground v.1.15,2013-04-03 15:12:00,
2013-04-03 10:14:00,35.6,23.9,30.36,ESE,123,8.0,13.0,62,0.00,,,0.00,434,Wunderground v.1.15,2013-04-03 15:14:00,
2013-04-03 10:16:00,35.7,23.6,30.36,ESE,121,7.0,13.0,61,0.00,,,0.00,450,Wunderground v.1.15,2013-04-03 15:16:00,
2013-04-03 10:17:00,35.9,24.1,30.36,ESE,109,9.0,13.0,62,0.00,,,0.00,464,Wunderground v.1.15,2013-04-03 15:17:00,
2013-04-03 10:19:00,36.1,24.3,30.36,ESE,103,7.0,13.0,62,0.00,,,0.00,471,Wunderground v.1.15,2013-04-03 15:19:00,
2013-04-03 10:22:00,36.5,23.9,30.37,ESE,122,7.0,11.0,60,0.00,,,0.00,480,Wunderground v.1.15,2013-04-03 15:22:00,
2013-04-03 10:23:00,36.5,24.3,30.36,SSE,153,10.0,16.0,61,0.00,,,0.00,464,Wunderground v.1.15,2013-04-03 15:23:00,
2013-04-03 10:24:00,36.5,23.9,30.36,ESE,109,10.0,16.0,60,0.00,,,0.00,494,Wunderground v.1.15,2013-04-03 15:24:00,
2013-04-03 10:25:00,36.7,24.1,30.36,SE,128,8.0,16.0,60,0.00,,,0.00,482,Wunderground v.1.15,2013-04-03 15:25:00,
2013-04-03 10:28:00,36.8,23.8,30.36,ESE,114,11.0,16.0,59,0.00,,,0.00,508,Wunderground v.1.15,2013-04-03 15:28:00,
2013-04-03 10:29:00,36.7,23.7,30.36,ESE,117,7.0,16.0,59,0.00,,,0.00,508,Wunderground v.1.15,2013-04-03 15:29:00,
2013-04-03 10:32:00,37.1,24.5,30.36,SSE,163,11.0,12.0,60,0.00,,,0.00,517,Wunderground v.1.15,2013-04-03 15:32:00,
2013-04-03 10:33:00,37.3,24.7,30.36,SE,140,9.0,12.0,60,0.00,,,0.00,526,Wunderground v.1.15,2013-04-03 15:33:00,
2013-04-03 10:34:00,37.5,24.9,30.36,SSE,157,11.0,12.0,60,0.00,,,0.00,526,Wunderground v.1.15,2013-04-03 15:34:00,
2013-04-03 10:35:00,37.5,24.1,30.36,ESE,115,11.0,12.0,58,0.00,,,0.00,526,Wunderground v.1.15,2013-04-03 15:35:00,
2013-04-03 10:38:00,37.4,24.0,30.37,SE,136,9.0,12.0,58,0.00,,,0.00,566,Wunderground v.1.15,2013-04-03 15:38:00,
2013-04-03 10:39:00,37.4,24.0,30.37,SE,135,7.0,12.0,58,0.00,,,0.00,561,Wunderground v.1.15,2013-04-03 15:39:00,
2013-04-03 10:40:00,37.3,23.9,30.37,ESE,109,9.0,9.0,58,0.00,,,0.00,561,Wunderground v.1.15,2013-04-03 15:40:00,
2013-04-03 10:43:00,37.6,23.7,30.37,ESE,115,8.0,11.0,57,0.00,,,0.00,552,Wunderground v.1.15,2013-04-03 15:43:00,
2013-04-03 10:44:00,37.7,24.2,30.37,SSE,152,8.0,11.0,58,0.00,,,0.00,555,Wunderground v.1.15,2013-04-03 15:44:00,
2013-04-03 10:45:00,37.8,24.3,30.37,SSE,158,7.0,11.0,58,0.00,,,0.00,555,Wunderground v.1.15,2013-04-03 15:45:00,
2013-04-03 10:46:00,38.0,24.9,30.37,SE,142,10.0,13.0,59,0.00,,,0.00,557,Wunderground v.1.15,2013-04-03 15:46:00,
2013-04-03 10:48:00,37.9,24.0,30.37,ESE,119,11.0,13.0,57,0.00,,,0.00,557,Wunderground v.1.15,2013-04-03 15:48:00,
2013-04-03 10:50:00,38.0,23.7,30.37,East,86,10.0,10.0,56,0.00,,,0.00,561,Wunderground v.1.15,2013-04-03 15:50:00,
2013-04-03 10:52:00,37.7,23.0,30.37,SE,144,3.0,10.0,55,0.00,,,0.00,555,Wunderground v.1.15,2013-04-03 15:52:00,
2013-04-03 10:54:00,37.9,23.2,30.37,ESE,119,7.0,13.0,55,0.00,,,0.00,555,Wunderground v.1.15,2013-04-03 15:54:00,
2013-04-03 10:55:00,38.0,23.7,30.37,SSE,165,6.0,13.0,56,0.00,,,0.00,555,Wunderground v.1.15,2013-04-03 15:55:00,
2013-04-03 10:57:00,38.2,24.3,30.37,SE,129,12.0,13.0,57,0.00,,,0.00,557,Wunderground v.1.15,2013-04-03 15:57:00,
2013-04-03 11:00:00,38.4,24.1,30.37,ESE,115,11.0,13.0,56,0.00,,,0.00,564,Wunderground v.1.15,2013-04-03 16:00:00,
2013-04-03 11:01:00,38.3,24.0,30.37,ESE,117,9.0,11.0,56,0.00,,,0.00,582,Wunderground v.1.15,2013-04-03 16:01:00,
2013-04-03 11:03:00,38.3,24.0,30.37,SSE,148,9.0,11.0,56,0.00,,,0.00,585,Wunderground v.1.15,2013-04-03 16:03:00,
2013-04-03 11:05:00,38.7,25.6,30.37,SSE,148,11.0,16.0,59,0.00,,,0.00,570,Wunderground v.1.15,2013-04-03 16:05:00,
2013-04-03 11:06:00,38.8,24.9,30.37,ESE,103,10.0,16.0,57,0.00,,,0.00,570,Wunderground v.1.15,2013-04-03 16:06:00,
2013-04-03 11:07:00,38.9,24.5,30.37,SE,142,9.0,16.0,56,0.00,,,0.00,566,Wunderground v.1.15,2013-04-03 16:07:00,
2013-04-03 11:08:00,38.7,23.9,30.37,ESE,113,11.0,16.0,55,0.00,,,0.00,577,Wunderground v.1.15,2013-04-03 16:08:00,
2013-04-03 11:10:00,38.9,24.5,30.37,SE,128,7.0,10.0,56,0.00,,,0.00,594,Wunderground v.1.15,2013-04-03 16:10:00,
2013-04-03 11:13:00,38.8,23.6,30.36,SE,130,6.0,12.0,54,0.00,,,0.00,589,Wunderground v.1.15,2013-04-03 16:13:00,
2013-04-03 11:14:00,38.6,23.4,30.36,SE,144,6.0,12.0,54,0.00,,,0.00,589,Wunderground v.1.15,2013-04-03 16:14:00,
2013-04-03 11:15:00,38.6,23.8,30.36,SSE,148,4.0,12.0,55,0.00,,,0.00,589,Wunderground v.1.15,2013-04-03 16:15:00,
2013-04-03 11:16:00,38.6,24.2,30.36,ESE,107,10.0,12.0,56,0.00,,,0.00,594,Wunderground v.1.15,2013-04-03 16:16:00,
2013-04-03 11:20:00,38.9,24.1,30.36,ESE,122,9.0,9.0,55,0.00,,,0.00,582,Wunderground v.1.15,2013-04-03 16:20:00,
2013-04-03 11:21:00,39.0,24.2,30.36,ESE,103,8.0,11.0,55,0.00,,,0.00,575,Wunderground v.1.15,2013-04-03 16:21:00,
2013-04-03 11:23:00,39.4,25.0,30.36,ESE,116,9.0,11.0,56,0.00,,,0.00,577,Wunderground v.1.15,2013-04-03 16:23:00,
2013-04-03 11:25:00,39.5,24.2,30.36,SSE,155,9.0,12.0,54,0.00,,,0.00,582,Wunderground v.1.15,2013-04-03 16:25:00,
2013-04-03 11:26:00,39.5,24.7,30.37,SE,133,10.0,12.0,55,0.00,,,0.00,582,Wunderground v.1.15,2013-04-03 16:26:00,
2013-04-03 11:30:00,39.2,23.5,30.36,ESE,123,7.0,9.0,53,0.00,,,0.00,566,Wunderground v.1.15,2013-04-03 16:30:00,
2013-04-03 11:31:00,39.3,24.0,30.36,ESE,121,12.0,12.0,54,0.00,,,0.00,566,Wunderground v.1.15,2013-04-03 16:31:00,
2013-04-03 11:32:00,39.5,23.8,30.36,ESE,120,11.0,12.0,53,0.00,,,0.00,566,Wunderground v.1.15,2013-04-03 16:32:00,
2013-04-03 11:34:00,39.6,23.9,30.36,ESE,107,8.0,13.0,53,0.00,,,0.00,601,Wunderground v.1.15,2013-04-03 16:34:00,
2013-04-03 11:37:00,40.0,24.7,30.36,SE,140,9.0,13.0,54,0.00,,,0.00,587,Wunderground v.1.15,2013-04-03 16:37:00,
2013-04-03 11:38:00,40.2,24.9,30.36,SSE,157,7.0,13.0,54,0.00,,,0.00,606,Wunderground v.1.15,2013-04-03 16:38:00,
2013-04-03 11:41:00,40.4,24.6,30.36,SE,142,9.0,11.0,53,0.00,,,0.00,619,Wunderground v.1.15,2013-04-03 16:41:00,
2013-04-03 11:42:00,40.4,25.1,30.36,SSE,148,11.0,11.0,54,0.00,,,0.00,619,Wunderground v.1.15,2013-04-03 16:42:00,
2013-04-03 11:43:00,40.4,25.1,30.36,SSE,161,12.0,12.0,54,0.00,,,0.00,615,Wunderground v.1.15,2013-04-03 16:43:00,
2013-04-03 11:47:00,40.5,25.6,30.36,SSE,150,11.0,12.0,55,0.00,,,0.00,615,Wunderground v.1.15,2013-04-03 16:47:00,
2013-04-03 11:49:00,40.9,24.6,30.37,SE,126,9.0,12.0,52,0.00,,,0.00,610,Wunderground v.1.15,2013-04-03 16:49:00,
2013-04-03 11:51:00,41.0,25.2,30.36,SE,134,11.0,14.0,53,0.00,,,0.00,619,Wunderground v.1.15,2013-04-03 16:51:00,
2013-04-03 11:52:00,41.0,24.7,30.36,SE,138,12.0,14.0,52,0.00,,,0.00,619,Wunderground v.1.15,2013-04-03 16:52:00,
2013-04-03 11:54:00,40.6,23.9,30.37,SSE,161,9.0,14.0,51,0.00,,,0.00,619,Wunderground v.1.15,2013-04-03 16:54:00,
2013-04-03 11:55:00,40.6,24.8,30.37,SE,146,9.0,14.0,53,0.00,,,0.00,619,Wunderground v.1.15,2013-04-03 16:55:00,
2013-04-03 11:58:00,40.6,23.9,30.37,SE,132,13.0,14.0,51,0.00,,,0.00,615,Wunderground v.1.15,2013-04-03 16:58:00,
2013-04-03 12:00:00,40.6,23.9,30.37,SE,135,12.0,15.0,51,0.00,,,0.00,606,Wunderground v.1.15,2013-04-03 17:00:00,
2013-04-03 12:01:00,40.6,23.9,30.36,SSE,167,8.0,10.0,51,0.00,,,0.00,606,Wunderground v.1.15,2013-04-03 17:01:00,
2013-04-03 12:05:00,40.9,24.1,30.36,SSE,153,11.0,13.0,51,0.00,,,0.00,629,Wunderground v.1.15,2013-04-03 17:05:00,
2013-04-03 12:07:00,41.1,24.8,30.36,South,179,8.0,13.0,52,0.00,,,0.00,633,Wunderground v.1.15,2013-04-03 17:07:00,
2013-04-03 12:08:00,41.0,24.7,30.36,SE,143,8.0,13.0,52,0.00,,,0.00,638,Wunderground v.1.15,2013-04-03 17:08:00,
2013-04-03 12:10:00,41.4,24.6,30.36,SE,145,9.0,11.0,51,0.00,,,0.00,629,Wunderground v.1.15,2013-04-03 17:10:00,
2013-04-03 12:12:00,41.5,24.7,30.36,ESE,121,10.0,11.0,51,0.00,,,0.00,621,Wunderground v.1.15,2013-04-03 17:12:00,
2013-04-03 12:13:00,41.5,24.2,30.36,SE,138,8.0,11.0,50,0.00,,,0.00,612,Wunderground v.1.15,2013-04-03 17:13:00,
2013-04-03 12:14:00,41.6,24.8,30.36,SSE,159,10.0,11.0,51,0.00,,,0.00,612,Wunderground v.1.15,2013-04-03 17:14:00,
2013-04-03 12:16:00,41.9,26.4,30.36,SSE,162,6.0,11.0,54,0.00,,,0.00,592,Wunderground v.1.15,2013-04-03 17:16:00,
2013-04-03 12:19:00,42.1,24.8,30.36,SSE,162,8.0,13.0,50,0.00,,,0.00,606,Wunderground v.1.15,2013-04-03 17:19:00,
2013-04-03 12:20:00,42.0,24.7,30.36,SSE,159,8.0,13.0,50,0.00,,,0.00,606,Wunderground v.1.15,2013-04-03 17:20:00,
2013-04-03 12:21:00,42.0,25.6,30.36,SSE,163,8.0,12.0,52,0.00,,,0.00,606,Wunderground v.1.15,2013-04-03 17:21:00,
2013-04-03 12:24:00,42.0,25.2,30.36,SSE,149,8.0,12.0,51,0.00,,,0.00,606,Wunderground v.1.15,2013-04-03 17:24:00,
2013-04-03 12:26:00,42.3,25.9,30.36,SE,143,11.0,14.0,52,0.00,,,0.00,615,Wunderground v.1.15,2013-04-03 17:26:00,
2013-04-03 12:27:00,42.3,25.9,30.35,SE,137,11.0,14.0,52,0.00,,,0.00,613,Wunderground v.1.15,2013-04-03 17:27:00,
2013-04-03 12:29:00,42.3,25.4,30.36,South,186,5.0,14.0,51,0.00,,,0.00,626,Wunderground v.1.15,2013-04-03 17:29:00,
2013-04-03 12:32:00,42.5,25.6,30.35,SSE,167,10.0,12.0,51,0.00,,,0.00,659,Wunderground v.1.15,2013-04-03 17:32:00,
2013-04-03 12:34:00,42.8,25.9,30.35,SSE,167,4.0,12.0,51,0.00,,,0.00,671,Wunderground v.1.15,2013-04-03 17:34:00,
2013-04-03 12:35:00,43.1,26.2,30.35,ESE,110,10.0,12.0,51,0.00,,,0.00,679,Wunderground v.1.15,2013-04-03 17:35:00,
2013-04-03 12:36:00,43.3,26.4,30.35,SSE,150,10.0,12.0,51,0.00,,,0.00,684,Wunderground v.1.15,2013-04-03 17:36:00,
2013-04-03 12:38:00,43.1,25.2,30.35,SSE,151,9.0,12.0,49,0.00,,,0.00,680,Wunderground v.1.15,2013-04-03 17:38:00,
2013-04-03 12:40:00,43.2,25.3,30.34,SSE,159,10.0,10.0,49,0.00,,,0.00,686,Wunderground v.1.15,2013-04-03 17:40:00,
2013-04-03 12:42:00,43.2,25.8,30.34,SE,140,13.0,13.0,50,0.00,,,0.00,710,Wunderground v.1.15,2013-04-03 17:42:00,
2013-04-03 12:43:00,43.3,24.9,30.34,SSE,154,10.0,13.0,48,0.00,,,0.00,715,Wunderground v.1.15,2013-04-03 17:43:00,
2013-04-03 12:44:00,43.4,25.0,30.34,SE,131,10.0,13.0,48,0.00,,,0.00,715,Wunderground v.1.15,2013-04-03 17:44:00,
2013-04-03 12:46:00,43.5,25.1,30.34,SSE,157,9.0,13.0,48,0.00,,,0.00,719,Wunderground v.1.15,2013-04-03 17:46:00,
2013-04-03 12:47:00,43.8,25.9,30.34,SE,130,8.0,13.0,49,0.00,,,0.00,689,Wunderground v.1.15,2013-04-03 17:47:00,
2013-04-03 12:48:00,43.8,24.9,30.34,ESE,119,11.0,13.0,47,0.00,,,0.00,689,Wunderground v.1.15,2013-04-03 17:48:00,
2013-04-03 12:49:00,43.8,24.9,30.34,SE,134,9.0,13.0,47,0.00,,,0.00,680,Wunderground v.1.15,2013-04-03 17:49:00,
2013-04-03 12:51:00,43.8,25.4,30.34,SSE,157,12.0,12.0,48,0.00,,,0.00,679,Wunderground v.1.15,2013-04-03 17:51:00,
2013-04-03 12:53:00,43.9,25.5,30.33,SE,140,10.0,13.0,48,0.00,,,0.00,679,Wunderground v.1.15,2013-04-03 17:53:00,
2013-04-03 12:55:00,43.8,24.9,30.34,ESE,114,11.0,13.0,47,0.00,,,0.00,687,Wunderground v.1.15,2013-04-03 17:55:00,
2013-04-03 12:56:00,43.9,24.4,30.33,ESE,119,9.0,13.0,46,0.00,,,0.00,680,Wunderground v.1.15,2013-04-03 17:56:00,
2013-04-03 12:58:00,44.4,26.4,30.34,ESE,121,7.0,13.0,49,0.00,,,0.00,675,Wunderground v.1.15,2013-04-03 17:58:00,
2013-04-03 13:01:00,44.5,25.0,30.33,SSE,151,7.0,9.0,46,0.00,,,0.00,664,Wunderground v.1.15,2013-04-03 18:01:00,
2013-04-03 13:03:00,44.6,26.1,30.33,SSE,155,4.0,9.0,48,0.00,,,0.00,649,Wunderground v.1.15,2013-04-03 18:03:00,
2013-04-03 13:05:00,45.1,27.1,30.33,SSE,152,8.0,12.0,49,0.00,,,0.00,633,Wunderground v.1.15,2013-04-03 18:05:00,
2013-04-03 13:08:00,44.3,24.3,30.33,SE,144,7.0,12.0,45,0.00,,,0.00,642,Wunderground v.1.15,2013-04-03 18:08:00,
2013-04-03 13:09:00,44.0,24.0,30.33,ESE,108,7.0,12.0,45,0.00,,,0.00,642,Wunderground v.1.15,2013-04-03 18:09:00,
2013-04-03 13:10:00,44.1,24.6,30.33,South,176,6.0,7.0,46,0.00,,,0.00,612,Wunderground v.1.15,2013-04-03 18:10:00,
2013-04-03 13:13:00,44.6,25.1,30.33,ESE,111,8.0,12.0,46,0.00,,,0.00,599,Wunderground v.1.15,2013-04-03 18:13:00,
2013-04-03 13:14:00,44.6,25.1,30.33,ESE,121,11.0,12.0,46,0.00,,,0.00,599,Wunderground v.1.15,2013-04-03 18:14:00,
2013-04-03 13:16:00,44.7,25.7,30.33,SSE,153,4.0,12.0,47,0.00,,,0.00,629,Wunderground v.1.15,2013-04-03 18:16:00,
2013-04-03 13:19:00,45.1,26.1,30.33,SSE,155,11.0,12.0,47,0.00,,,0.00,633,Wunderground v.1.15,2013-04-03 18:19:00,
2013-04-03 13:20:00,45.1,26.1,30.33,SE,145,9.0,12.0,47,0.00,,,0.00,633,Wunderground v.1.15,2013-04-03 18:20:00,
2013-04-03 13:21:00,45.2,26.1,30.33,SSE,155,11.0,11.0,47,0.00,,,0.00,640,Wunderground v.1.15,2013-04-03 18:21:00,
2013-04-03 13:25:00,44.8,24.7,30.32,SE,146,7.0,14.0,45,0.00,,,0.00,629,Wunderground v.1.15,2013-04-03 18:25:00,
2013-04-03 13:26:00,44.6,25.6,30.32,South,169,7.0,14.0,47,0.00,,,0.00,629,Wunderground v.1.15,2013-04-03 18:26:00,
2013-04-03 13:27:00,44.6,25.1,30.32,SE,144,7.0,14.0,46,0.00,,,0.00,636,Wunderground v.1.15,2013-04-03 18:27:00,
2013-04-03 13:28:00,44.7,25.2,30.32,SSE,163,9.0,14.0,46,0.00,,,0.00,636,Wunderground v.1.15,2013-04-03 18:28:00,
2013-04-03 13:31:00,45.1,26.6,30.32,SSE,167,7.0,9.0,48,0.00,,,0.00,647,Wunderground v.1.15,2013-04-03 18:31:00,
2013-04-03 13:32:00,45.2,26.7,30.32,SSE,156,5.0,9.0,48,0.00,,,0.00,659,Wunderground v.1.15,2013-04-03 18:32:00,
2013-04-03 13:33:00,45.5,26.4,30.32,SSE,158,11.0,11.0,47,0.00,,,0.00,659,Wunderground v.1.15,2013-04-03 18:33:00,
2013-04-03 13:37:00,46.0,27.9,30.32,SSE,156,3.0,12.0,49,0.00,,,0.00,657,Wunderground v.1.15,2013-04-03 18:37:00,
2013-04-03 13:39:00,45.9,26.3,30.31,SSE,157,8.0,12.0,46,0.00,,,0.00,645,Wunderground v.1.15,2013-04-03 18:39:00,
2013-04-03 13:40:00,45.8,26.2,30.32,SE,125,8.0,8.0,46,0.00,,,0.00,640,Wunderground v.1.15,2013-04-03 18:40:00,
2013-04-03 13:42:00,45.7,26.6,30.31,SSE,150,7.0,8.0,47,0.00,,,0.00,640,Wunderground v.1.15,2013-04-03 18:42:00,
2013-04-03 13:44:00,46.3,27.2,30.31,SSE,159,9.0,10.0,47,0.00,,,0.00,642,Wunderground v.1.15,2013-04-03 18:44:00,
2013-04-03 13:45:00,46.3,27.2,30.31,South,171,7.0,10.0,47,0.00,,,0.00,642,Wunderground v.1.15,2013-04-03 18:45:00,
2013-04-03 13:46:00,46.4,25.6,30.31,SE,130,10.0,10.0,44,0.00,,,0.00,657,Wunderground v.1.15,2013-04-03 18:46:00,
2013-04-03 13:48:00,46.0,24.7,30.31,SE,142,5.0,10.0,43,0.00,,,0.00,668,Wunderground v.1.15,2013-04-03 18:48:00,
2013-04-03 13:49:00,45.7,25.0,30.31,ESE,122,4.0,10.0,44,0.00,,,0.00,682,Wunderground v.1.15,2013-04-03 18:49:00,
2013-04-03 13:51:00,45.8,25.6,30.31,SSE,148,7.0,7.0,45,0.00,,,0.00,675,Wunderground v.1.15,2013-04-03 18:51:00,
2013-04-03 13:52:00,46.1,27.0,30.31,SE,128,8.0,8.0,47,0.00,,,0.00,696,Wunderground v.1.15,2013-04-03 18:52:00,
2013-04-03 13:55:00,45.9,25.7,30.31,South,169,6.0,11.0,45,0.00,,,0.00,717,Wunderground v.1.15,2013-04-03 18:55:00,
2013-04-03 13:57:00,46.1,25.4,30.31,South,176,7.0,11.0,44,0.00,,,0.00,719,Wunderground v.1.15,2013-04-03 18:57:00,
2013-04-03 13:58:00,46.2,25.5,30.31,South,181,5.0,11.0,44,0.00,,,0.00,710,Wunderground v.1.15,2013-04-03 18:58:00,
2013-04-03 14:02:00,46.8,25.5,30.30,East,89,5.0,12.0,43,0.00,,,0.00,687,Wunderground v.1.15,2013-04-03 19:02:00,
2013-04-03 14:03:00,46.5,25.7,30.30,SE,124,8.0,12.0,44,0.00,,,0.00,696,Wunderground v.1.15,2013-04-03 19:03:00,
2013-04-03 14:04:00,46.6,26.4,30.30,ESE,116,8.0,12.0,45,0.00,,,0.00,696,Wunderground v.1.15,2013-04-03 19:04:00,
2013-04-03 14:07:00,46.2,25.5,30.30,SE,127,3.0,12.0,44,0.00,,,0.00,659,Wunderground v.1.15,2013-04-03 19:07:00,
2013-04-03 14:08:00,46.2,25.5,30.30,ESE,119,3.0,12.0,44,0.00,,,0.00,659,Wunderground v.1.15,2013-04-03 19:08:00,
2013-04-03 14:09:00,46.3,25.6,30.30,ESE,106,4.0,12.0,44,0.00,,,0.00,666,Wunderground v.1.15,2013-04-03 19:09:00,
2013-04-03 14:13:00,46.8,25.5,30.30,SE,133,6.0,10.0,43,0.00,,,0.00,694,Wunderground v.1.15,2013-04-03 19:13:00,
2013-04-03 14:15:00,46.7,25.4,30.30,SE,132,11.0,11.0,43,0.00,,,0.00,694,Wunderground v.1.15,2013-04-03 19:15:00,
2013-04-03 14:20:00,46.8,26.6,30.30,SE,125,6.0,7.0,45,0.00,,,0.00,693,Wunderground v.1.15,2013-04-03 19:20:00,
2013-04-03 14:22:00,47.4,26.6,30.30,ESE,116,12.0,12.0,44,0.00,,,0.00,689,Wunderground v.1.15,2013-04-03 19:22:00,
2013-04-03 14:25:00,47.6,25.6,30.30,ESE,104,8.0,12.0,42,0.00,,,0.00,700,Wunderground v.1.15,2013-04-03 19:25:00,
2013-04-03 14:27:00,47.4,25.4,30.30,ESE,117,8.0,12.0,42,0.00,,,0.00,701,Wunderground v.1.15,2013-04-03 19:27:00,
2013-04-03 14:28:00,47.4,26.0,30.30,ESE,123,9.0,12.0,43,0.00,,,0.00,698,Wunderground v.1.15,2013-04-03 19:28:00,
2013-04-03 14:31:00,47.6,26.2,30.30,SE,146,9.0,12.0,43,0.00,,,0.00,740,Wunderground v.1.15,2013-04-03 19:31:00,
2013-04-03 14:33:00,47.7,26.3,30.30,South,171,5.0,12.0,43,0.00,,,0.00,756,Wunderground v.1.15,2013-04-03 19:33:00,
2013-04-03 14:37:00,48.1,26.6,30.29,SSE,156,8.0,12.0,43,0.00,,,0.00,740,Wunderground v.1.15,2013-04-03 19:37:00,
2013-04-03 14:38:00,48.1,26.6,30.29,SSW,194,5.0,12.0,43,0.00,,,0.00,747,Wunderground v.1.15,2013-04-03 19:38:00,
2013-04-03 14:39:00,48.1,26.6,30.29,SSW,192,7.0,12.0,43,0.00,,,0.00,747,Wunderground v.1.15,2013-04-03 19:39:00,
2013-04-03 14:40:00,47.8,25.8,30.29,South,186,4.0,12.0,42,0.00,,,0.00,728,Wunderground v.1.15,2013-04-03 19:40:00,
2013-04-03 14:43:00,48.1,26.6,30.29,WSW,251,5.0,9.0,43,0.00,,,0.00,701,Wunderground v.1.15,2013-04-03 19:43:00,
2013-04-03 14:44:00,48.0,26.5,30.29,WSW,245,4.0,9.0,43,0.00,,,0.00,705,Wunderground v.1.15,2013-04-03 19:44:00,
2013-04-03 14:45:00,48.3,26.8,30.29,SSE,165,5.0,9.0,43,0.00,,,0.00,687,Wunderground v.1.15,2013-04-03 19:45:00,
2013-04-03 14:49:00,47.8,26.4,30.29,SSE,152,10.0,11.0,43,0.00,,,0.00,663,Wunderground v.1.15,2013-04-03 19:49:00,
2013-04-03 14:53:00,47.9,27.0,30.29,SSW,205,5.0,7.0,44,0.00,,,0.00,615,Wunderground v.1.15,2013-04-03 19:53:00,
2013-04-03 14:54:00,48.2,26.7,30.29,SSW,213,5.0,7.0,43,0.00,,,0.00,605,Wunderground v.1.15,2013-04-03 19:54:00,
2013-04-03 14:57:00,47.9,25.3,30.29,SW,230,3.0,8.0,41,0.00,,,0.00,554,Wunderground v.1.15,2013-04-03 19:57:00,
2013-04-03 14:58:00,47.7,25.7,30.28,West,268,3.0,8.0,42,0.00,,,0.00,552,Wunderground v.1.15,2013-04-03 19:58:00,
2013-04-03 14:59:00,47.8,25.8,30.28,West,267,0.0,8.0,42,0.00,,,0.00,545,Wunderground v.1.15,2013-04-03 19:59:00,
2013-04-03 15:01:00,47.9,27.0,30.29,SSE,167,3.0,6.0,44,0.00,,,0.00,548,Wunderground v.1.15,2013-04-03 20:01:00,
2013-04-03 15:02:00,48.2,26.2,30.29,SE,143,5.0,7.0,42,0.00,,,0.00,547,Wunderground v.1.15,2013-04-03 20:02:00,
2013-04-03 15:04:00,48.1,26.1,30.29,SSE,152,6.0,7.0,42,0.00,,,0.00,554,Wunderground v.1.15,2013-04-03 20:04:00,
2013-04-03 15:06:00,48.2,26.2,30.28,SE,138,7.0,7.0,42,0.00,,,0.00,559,Wunderground v.1.15,2013-04-03 20:06:00,
2013-04-03 15:08:00,48.9,26.8,30.29,SSE,162,3.0,9.0,42,0.00,,,0.00,559,Wunderground v.1.15,2013-04-03 20:08:00,
2013-04-03 15:10:00,48.7,26.6,30.28,South,169,1.0,9.0,42,0.00,,,0.00,559,Wunderground v.1.15,2013-04-03 20:10:00,
2013-04-03 15:12:00,48.6,27.1,30.29,SE,130,8.0,9.0,43,0.00,,,0.00,533,Wunderground v.1.15,2013-04-03 20:12:00,
2013-04-03 15:13:00,48.6,27.6,30.29,ESE,108,8.0,10.0,44,0.00,,,0.00,533,Wunderground v.1.15,2013-04-03 20:13:00,
2013-04-03 15:15:00,48.7,26.6,30.28,SSE,166,4.0,10.0,42,0.00,,,0.00,512,Wunderground v.1.15,2013-04-03 20:15:00,
2013-04-03 15:18:00,48.9,26.8,30.29,South,171,6.0,10.0,42,0.00,,,0.00,519,Wunderground v.1.15,2013-04-03 20:18:00,
2013-04-03 15:19:00,48.9,27.4,30.28,SSE,153,5.0,10.0,43,0.00,,,0.00,508,Wunderground v.1.15,2013-04-03 20:19:00,
2013-04-03 15:21:00,48.5,25.8,30.29,SSE,149,5.0,6.0,41,0.00,,,0.00,536,Wunderground v.1.15,2013-04-03 20:21:00,
2013-04-03 15:24:00,48.3,26.2,30.29,SSW,209,5.0,7.0,42,0.00,,,0.00,580,Wunderground v.1.15,2013-04-03 20:24:00,
2013-04-03 15:27:00,48.4,26.3,30.29,South,169,4.0,8.0,42,0.00,,,0.00,647,Wunderground v.1.15,2013-04-03 20:27:00,
2013-04-03 15:29:00,48.6,25.9,30.29,SE,130,4.0,9.0,41,0.00,,,0.00,621,Wunderground v.1.15,2013-04-03 20:29:00,
2013-04-03 15:32:00,48.8,26.7,30.29,South,190,5.0,7.0,42,0.00,,,0.00,612,Wunderground v.1.15,2013-04-03 20:32:00,
2013-04-03 15:33:00,49.1,27.5,30.28,SSW,202,3.0,7.0,43,0.00,,,0.00,606,Wunderground v.1.15,2013-04-03 20:33:00,
2013-04-03 15:34:00,49.4,27.2,30.28,SSW,204,7.0,7.0,42,0.00,,,0.00,612,Wunderground v.1.15,2013-04-03 20:34:00,
2013-04-03 15:36:00,49.6,28.0,30.28,SW,232,7.0,7.0,43,0.00,,,0.00,594,Wunderground v.1.15,2013-04-03 20:36:00,
2013-04-03 15:38:00,49.7,26.3,30.28,SW,226,0.0,8.0,40,0.00,,,0.00,594,Wunderground v.1.15,2013-04-03 20:38:00,
2013-04-03 15:39:00,49.6,26.8,30.28,SW,224,1.0,8.0,41,0.00,,,0.00,594,Wunderground v.1.15,2013-04-03 20:39:00,
2013-04-03 15:40:00,49.6,27.4,30.28,SE,146,6.0,8.0,42,0.00,,,0.00,613,Wunderground v.1.15,2013-04-03 20:40:00,
2013-04-03 15:41:00,50.0,28.4,30.28,South,178,8.0,8.0,43,0.00,,,0.00,631,Wunderground v.1.15,2013-04-03 20:41:00,
2013-04-03 15:44:00,50.6,27.1,30.28,SSW,200,4.0,9.0,40,0.00,,,0.00,624,Wunderground v.1.15,2013-04-03 20:44:00,
2013-04-03 15:45:00,50.4,28.1,30.28,South,186,7.0,9.0,42,0.00,,,0.00,624,Wunderground v.1.15,2013-04-03 20:45:00,
2013-04-03 15:46:00,50.0,27.2,30.28,SSW,201,7.0,9.0,41,0.00,,,0.00,584,Wunderground v.1.15,2013-04-03 20:46:00,
2013-04-03 15:47:00,50.0,27.2,30.28,SSW,202,6.0,9.0,41,0.00,,,0.00,584,Wunderground v.1.15,2013-04-03 20:47:00,
2013-04-03 15:49:00,50.0,27.2,30.27,South,182,4.0,10.0,41,0.00,,,0.00,554,Wunderground v.1.15,2013-04-03 20:49:00,
2013-04-03 15:50:00,50.0,27.2,30.27,SSE,165,7.0,7.0,41,0.00,,,0.00,554,Wunderground v.1.15,2013-04-03 20:50:00,
2013-04-03 15:51:00,50.1,27.3,30.27,SE,142,10.0,11.0,41,0.00,,,0.00,536,Wunderground v.1.15,2013-04-03 20:51:00,
2013-04-03 15:53:00,49.7,26.9,30.27,SE,146,2.0,11.0,41,0.00,,,0.00,536,Wunderground v.1.15,2013-04-03 20:53:00,
2013-04-03 15:55:00,49.8,27.6,30.27,South,180,5.0,11.0,42,0.00,,,0.00,476,Wunderground v.1.15,2013-04-03 20:55:00,
2013-04-03 15:56:00,49.7,26.3,30.27,South,180,1.0,11.0,40,0.00,,,0.00,471,Wunderground v.1.15,2013-04-03 20:56:00,
2013-04-03 16:00:00,50.1,27.9,30.27,SSE,159,6.0,7.0,42,0.00,,,0.00,503,Wunderground v.1.15,2013-04-03 21:00:00,
2013-04-03 16:01:00,50.0,26.6,30.27,South,171,8.0,8.0,40,0.00,,,0.00,492,Wunderground v.1.15,2013-04-03 21:01:00,
2013-04-03 16:04:00,49.9,27.1,30.27,SSE,150,6.0,9.0,41,0.00,,,0.00,501,Wunderground v.1.15,2013-04-03 21:04:00,
2013-04-03 16:05:00,49.9,27.1,30.27,SSE,158,6.0,10.0,41,0.00,,,0.00,483,Wunderground v.1.15,2013-04-03 21:05:00,
2013-04-03 16:07:00,50.1,27.9,30.27,SSE,158,4.0,10.0,42,0.00,,,0.00,454,Wunderground v.1.15,2013-04-03 21:07:00,
2013-04-03 16:10:00,50.5,27.7,30.26,SSW,208,5.0,10.0,41,0.00,,,0.00,657,Wunderground v.1.15,2013-04-03 21:10:00,
2013-04-03 16:11:00,50.8,29.1,30.26,South,178,8.0,8.0,43,0.00,,,0.00,691,Wunderground v.1.15,2013-04-03 21:11:00,
2013-04-03 16:13:00,51.0,28.1,30.26,South,180,6.0,8.0,41,0.00,,,0.00,691,Wunderground v.1.15,2013-04-03 21:13:00,
2013-04-03 16:15:00,50.9,26.8,30.26,South,170,7.0,9.0,39,0.00,,,0.00,721,Wunderground v.1.15,2013-04-03 21:15:00,
2013-04-03 16:17:00,51.1,27.6,30.26,South,182,6.0,9.0,40,0.00,,,0.00,714,Wunderground v.1.15,2013-04-03 21:17:00,
2013-04-03 16:19:00,51.0,26.9,30.26,SSE,158,3.0,9.0,39,0.00,,,0.00,696,Wunderground v.1.15,2013-04-03 21:19:00,
2013-04-03 16:22:00,50.6,27.7,30.26,SSE,155,5.0,6.0,41,0.00,,,0.00,519,Wunderground v.1.15,2013-04-03 21:22:00,
2013-04-03 16:23:00,50.6,26.5,30.26,SSE,165,7.0,7.0,39,0.00,,,0.00,557,Wunderground v.1.15,2013-04-03 21:23:00,
2013-04-03 16:24:00,50.5,27.0,30.26,South,169,4.0,7.0,40,0.00,,,0.00,635,Wunderground v.1.15,2013-04-03 21:24:00,
2013-04-03 16:27:00,50.7,27.2,30.25,SSW,193,3.0,7.0,40,0.00,,,0.00,656,Wunderground v.1.15,2013-04-03 21:27:00,
2013-04-03 16:28:00,50.8,27.3,30.25,SE,142,9.0,9.0,40,0.00,,,0.00,591,Wunderground v.1.15,2013-04-03 21:28:00,
2013-04-03 16:29:00,50.7,26.6,30.25,SSE,164,2.0,9.0,39,0.00,,,0.00,592,Wunderground v.1.15,2013-04-03 21:29:00,
2013-04-03 16:34:00,50.6,27.7,30.25,SSW,208,1.0,5.0,41,0.00,,,0.00,635,Wunderground v.1.15,2013-04-03 21:34:00,
2013-04-03 16:35:00,50.6,27.7,30.25,SSW,208,0.0,5.0,41,0.00,,,0.00,635,Wunderground v.1.15,2013-04-03 21:35:00,
2013-04-03 16:39:00,50.9,28.0,30.25,South,174,6.0,10.0,41,0.00,,,0.00,635,Wunderground v.1.15,2013-04-03 21:39:00,
2013-04-03 16:40:00,51.0,27.5,30.25,SSE,147,5.0,5.0,40,0.00,,,0.00,635,Wunderground v.1.15,2013-04-03 21:40:00,
2013-04-03 16:42:00,51.2,27.7,30.25,SSE,150,6.0,10.0,40,0.00,,,0.00,598,Wunderground v.1.15,2013-04-03 21:42:00,
2013-04-03 16:44:00,51.5,28.6,30.25,South,177,9.0,10.0,41,0.00,,,0.00,624,Wunderground v.1.15,2013-04-03 21:44:00,
2013-04-03 16:47:00,51.4,27.9,30.25,South,173,4.0,10.0,40,0.00,,,0.00,624,Wunderground v.1.15,2013-04-03 21:47:00,
2013-04-03 16:50:00,51.0,27.5,30.24,SW,215,4.0,5.0,40,0.00,,,0.00,533,Wunderground v.1.15,2013-04-03 21:50:00,
2013-04-03 16:52:00,51.2,27.1,30.24,West,273,1.0,7.0,39,0.00,,,0.00,568,Wunderground v.1.15,2013-04-03 21:52:00,
2013-04-03 16:53:00,51.2,27.1,30.24,West,268,2.0,7.0,39,0.00,,,0.00,568,Wunderground v.1.15,2013-04-03 21:53:00,
2013-04-03 16:55:00,51.4,27.9,30.24,ESE,109,7.0,9.0,40,0.00,,,0.00,564,Wunderground v.1.15,2013-04-03 21:55:00,
2013-04-03 16:59:00,51.6,27.4,30.24,ESE,121,9.0,10.0,39,0.00,,,0.00,494,Wunderground v.1.15,2013-04-03 21:59:00,
2013-04-03 17:00:00,51.5,27.3,30.24,ESE,111,4.0,5.0,39,0.00,,,0.00,503,Wunderground v.1.15,2013-04-03 22:00:00,
2013-04-03 17:01:00,51.4,27.2,30.24,ESE,103,7.0,7.0,39,0.00,,,0.00,503,Wunderground v.1.15,2013-04-03 22:01:00,
2013-04-03 17:04:00,51.4,27.2,30.24,SE,132,4.0,8.0,39,0.00,,,0.00,524,Wunderground v.1.15,2013-04-03 22:04:00,
2013-04-03 17:06:00,51.8,28.2,30.23,SE,142,6.0,8.0,40,0.00,,,0.00,519,Wunderground v.1.15,2013-04-03 22:06:00,
2013-04-03 17:07:00,51.9,28.3,30.23,SSE,155,7.0,8.0,40,0.00,,,0.00,519,Wunderground v.1.15,2013-04-03 22:07:00,
2013-04-03 17:10:00,51.9,28.9,30.24,South,178,3.0,6.0,41,0.00,,,0.00,468,Wunderground v.1.15,2013-04-03 22:10:00,
2013-04-03 17:12:00,51.8,27.6,30.24,SSE,162,2.0,6.0,39,0.00,,,0.00,466,Wunderground v.1.15,2013-04-03 22:12:00,
2013-04-03 17:13:00,51.8,27.6,30.24,South,190,9.0,9.0,39,0.00,,,0.00,494,Wunderground v.1.15,2013-04-03 22:13:00,
2013-04-03 17:17:00,51.9,27.7,30.23,South,184,6.0,9.0,39,0.00,,,0.00,462,Wunderground v.1.15,2013-04-03 22:17:00,
2013-04-03 17:18:00,51.8,27.6,30.23,South,170,5.0,9.0,39,0.00,,,0.00,462,Wunderground v.1.15,2013-04-03 22:18:00,
2013-04-03 17:19:00,51.7,27.5,30.23,SSE,159,8.0,9.0,39,0.00,,,0.00,461,Wunderground v.1.15,2013-04-03 22:19:00,
2013-04-03 17:20:00,51.7,27.5,30.23,SSW,203,4.0,6.0,39,0.00,,,0.00,452,Wunderground v.1.15,2013-04-03 22:20:00,
2013-04-03 17:23:00,51.7,27.5,30.23,SSE,148,6.0,8.0,39,0.00,,,0.00,445,Wunderground v.1.15,2013-04-03 22:23:00,
2013-04-03 17:24:00,51.7,28.1,30.23,SSE,150,9.0,9.0,40,0.00,,,0.00,434,Wunderground v.1.15,2013-04-03 22:24:00,
2013-04-03 17:25:00,51.6,27.4,30.23,SE,144,4.0,9.0,39,0.00,,,0.00,429,Wunderground v.1.15,2013-04-03 22:25:00,
2013-04-03 17:27:00,51.6,28.0,30.23,SE,136,3.0,9.0,40,0.00,,,0.00,418,Wunderground v.1.15,2013-04-03 22:27:00,
2013-04-03 17:29:00,51.7,28.7,30.23,East,97,7.0,9.0,41,0.00,,,0.00,420,Wunderground v.1.15,2013-04-03 22:29:00,
2013-04-03 17:30:00,51.9,28.3,30.23,SE,145,7.0,7.0,40,0.00,,,0.00,420,Wunderground v.1.15,2013-04-03 22:30:00,
2013-04-03 17:31:00,51.8,27.6,30.23,SSE,150,4.0,7.0,39,0.00,,,0.00,410,Wunderground v.1.15,2013-04-03 22:31:00,
2013-04-03 17:32:00,52.0,28.4,30.23,SSE,163,5.0,7.0,40,0.00,,,0.00,401,Wunderground v.1.15,2013-04-03 22:32:00,
2013-04-03 17:35:00,51.9,27.7,30.23,South,190,6.0,9.0,39,0.00,,,0.00,399,Wunderground v.1.15,2013-04-03 22:35:00,
2013-04-03 17:37:00,52.1,28.5,30.23,SSE,148,9.0,9.0,40,0.00,,,0.00,388,Wunderground v.1.15,2013-04-03 22:37:00,
2013-04-03 17:40:00,51.8,27.6,30.23,SE,133,3.0,6.0,39,0.00,,,0.00,374,Wunderground v.1.15,2013-04-03 22:40:00,
2013-04-03 17:42:00,51.5,27.3,30.23,SE,142,4.0,6.0,39,0.00,,,0.00,362,Wunderground v.1.15,2013-04-03 22:42:00,
2013-04-03 17:43:00,51.4,27.2,30.23,SE,142,9.0,11.0,39,0.00,,,0.00,352,Wunderground v.1.15,2013-04-03 22:43:00,
2013-04-03 17:44:00,51.4,27.2,30.23,SE,134,7.0,11.0,39,0.00,,,0.00,330,Wunderground v.1.15,2013-04-03 22:44:00,
2013-04-03 17:46:00,51.2,27.1,30.23,SE,134,1.0,11.0,39,0.00,,,0.00,308,Wunderground v.1.15,2013-04-03 22:46:00,
2013-04-03 17:47:00,51.1,27.0,30.22,ESE,115,4.0,11.0,39,0.00,,,0.00,311,Wunderground v.1.15,2013-04-03 22:47:00,
2013-04-03 17:51:00,51.5,27.9,30.22,SE,144,7.0,9.0,40,0.00,,,0.00,308,Wunderground v.1.15,2013-04-03 22:51:00,
2013-04-03 17:53:00,51.5,27.3,30.22,SE,124,5.0,9.0,39,0.00,,,0.00,297,Wunderground v.1.15,2013-04-03 22:53:00,
2013-04-03 17:56:00,51.4,27.2,30.22,SE,130,7.0,10.0,39,0.00,,,0.00,265,Wunderground v.1.15,2013-04-03 22:56:00,
2013-04-03 17:59:00,51.4,27.9,30.22,ESE,122,7.0,10.0,40,0.00,,,0.00,253,Wunderground v.1.15,2013-04-03 22:59:00,
2013-04-03 18:01:00,51.3,27.8,30.22,SSE,159,5.0,7.0,40,0.00,,,0.00,287,Wunderground v.1.15,2013-04-03 23:01:00,
2013-04-03 18:02:00,51.3,28.4,30.22,SE,146,7.0,8.0,41,0.00,,,0.00,287,Wunderground v.1.15,2013-04-03 23:02:00,
2013-04-03 18:04:00,51.4,27.9,30.22,SE,125,6.0,9.0,40,0.00,,,0.00,299,Wunderground v.1.15,2013-04-03 23:04:00,
2013-04-03 18:07:00,51.5,27.3,30.22,SE,138,6.0,9.0,39,0.00,,,0.00,285,Wunderground v.1.15,2013-04-03 23:07:00,
2013-04-03 18:09:00,51.5,27.3,30.22,SSE,157,9.0,10.0,39,0.00,,,0.00,225,Wunderground v.1.15,2013-04-03 23:09:00,
2013-04-03 18:10:00,51.5,27.9,30.22,SE,142,5.0,8.0,40,0.00,,,0.00,251,Wunderground v.1.15,2013-04-03 23:10:00,
2013-04-03 18:13:00,51.4,28.5,30.22,SSE,147,8.0,10.0,41,0.00,,,0.00,234,Wunderground v.1.15,2013-04-03 23:13:00,
2013-04-03 18:16:00,51.2,27.7,30.22,SE,144,7.0,10.0,40,0.00,,,0.00,218,Wunderground v.1.15,2013-04-03 23:16:00,
2013-04-03 18:17:00,51.2,28.3,30.22,SE,134,6.0,10.0,41,0.00,,,0.00,202,Wunderground v.1.15,2013-04-03 23:17:00,
2013-04-03 18:19:00,51.1,28.2,30.22,SE,146,7.0,10.0,41,0.00,,,0.00,128,Wunderground v.1.15,2013-04-03 23:19:00,
2013-04-03 18:21:00,50.9,27.4,30.22,SE,132,6.0,9.0,40,0.00,,,0.00,118,Wunderground v.1.15,2013-04-03 23:21:00,
2013-04-03 18:23:00,50.7,27.2,30.22,SE,126,7.0,9.0,40,0.00,,,0.00,118,Wunderground v.1.15,2013-04-03 23:23:00,
2013-04-03 18:26:00,50.5,27.7,30.22,SE,142,8.0,9.0,41,0.00,,,0.00,130,Wunderground v.1.15,2013-04-03 23:26:00,
2013-04-03 18:28:00,50.5,28.2,30.22,SSE,159,7.0,9.0,42,0.00,,,0.00,146,Wunderground v.1.15,2013-04-03 23:28:00,
2013-04-03 18:29:00,50.5,28.2,30.22,SE,129,7.0,9.0,42,0.00,,,0.00,146,Wunderground v.1.15,2013-04-03 23:29:00,
2013-04-03 18:33:00,50.5,28.2,30.22,SE,132,7.0,9.0,42,0.00,,,0.00,116,Wunderground v.1.15,2013-04-03 23:33:00,
2013-04-03 18:34:00,50.5,27.7,30.22,SE,137,10.0,10.0,41,0.00,,,0.00,116,Wunderground v.1.15,2013-04-03 23:34:00,
2013-04-03 18:35:00,50.5,28.2,30.22,SE,139,10.0,10.0,42,0.00,,,0.00,97,Wunderground v.1.15,2013-04-03 23:35:00,
2013-04-03 18:38:00,50.3,27.5,30.22,SSE,147,7.0,10.0,41,0.00,,,0.00,79,Wunderground v.1.15,2013-04-03 23:38:00,
2013-04-03 18:40:00,50.2,28.0,30.22,SE,145,5.0,10.0,42,0.00,,,0.00,84,Wunderground v.1.15,2013-04-03 23:40:00,
2013-04-03 18:44:00,50.0,28.4,30.22,SE,137,7.0,8.0,43,0.00,,,0.00,84,Wunderground v.1.15,2013-04-03 23:44:00,
2013-04-03 18:45:00,49.9,28.3,30.22,SE,144,7.0,8.0,43,0.00,,,0.00,79,Wunderground v.1.15,2013-04-03 23:45:00,
2013-04-03 18:46:00,49.9,28.3,30.22,SE,142,4.0,8.0,43,0.00,,,0.00,79,Wunderground v.1.15,2013-04-03 23:46:00,
2013-04-03 18:47:00,49.8,28.7,30.22,SE,138,5.0,8.0,44,0.00,,,0.00,77,Wunderground v.1.15,2013-04-03 23:47:00,
2013-04-03 18:50:00,49.7,27.5,30.22,SE,130,6.0,6.0,42,0.00,,,0.00,72,Wunderground v.1.15,2013-04-03 23:50:00,
2013-04-03 18:51:00,49.7,27.5,30.22,SE,131,4.0,6.0,42,0.00,,,0.00,72,Wunderground v.1.15,2013-04-03 23:51:00,
2013-04-03 18:52:00,49.6,27.4,30.22,ESE,121,7.0,8.0,42,0.00,,,0.00,72,Wunderground v.1.15,2013-04-03 23:52:00,
2013-04-03 18:54:00,49.6,27.4,30.22,SE,141,7.0,8.0,42,0.00,,,0.00,72,Wunderground v.1.15,2013-04-03 23:54:00,
2013-04-03 18:56:00,49.6,27.4,30.22,SE,132,6.0,9.0,42,0.00,,,0.00,67,Wunderground v.1.15,2013-04-03 23:56:00,
2013-04-03 18:57:00,49.6,27.4,30.22,SE,131,5.0,9.0,42,0.00,,,0.00,67,Wunderground v.1.15,2013-04-03 23:57:00,
2013-04-03 18:58:00,49.6,28.0,30.22,SE,127,5.0,9.0,43,0.00,,,0.00,67,Wunderground v.1.15,2013-04-03 23:58:00,
2013-04-03 19:00:00,49.5,27.3,30.22,SE,134,7.0,7.0,42,0.00,,,0.00,62,Wunderground v.1.15,2013-04-04 00:00:00,
2013-04-03 19:02:00,49.4,27.2,30.22,SE,139,7.0,8.0,42,0.00,,,0.00,62,Wunderground v.1.15,2013-04-04 00:02:00,
2013-04-03 19:04:00,49.4,27.2,30.22,SE,137,4.0,8.0,42,0.00,,,0.00,58,Wunderground v.1.15,2013-04-04 00:04:00,
2013-04-03 19:07:00,49.2,27.6,30.22,SE,137,3.0,8.0,43,0.00,,,0.00,54,Wunderground v.1.15,2013-04-04 00:07:00,
2013-04-03 19:09:00,49.1,27.5,30.22,SE,144,7.0,8.0,43,0.00,,,0.00,53,Wunderground v.1.15,2013-04-04 00:09:00,
2013-04-03 19:14:00,48.7,27.7,30.22,SE,134,4.0,5.0,44,0.00,,,0.00,49,Wunderground v.1.15,2013-04-04 00:14:00,
2013-04-03 19:15:00,48.7,28.3,30.22,SE,134,2.0,5.0,45,0.00,,,0.00,49,Wunderground v.1.15,2013-04-04 00:15:00,
2013-04-03 19:17:00,48.6,27.6,30.22,SE,138,4.0,5.0,44,0.00,,,0.00,46,Wunderground v.1.15,2013-04-04 00:17:00,
2013-04-03 19:19:00,48.5,28.1,30.22,SSE,148,3.0,5.0,45,0.00,,,0.00,35,Wunderground v.1.15,2013-04-04 00:19:00,
2013-04-03 19:20:00,48.4,28.0,30.22,SSE,148,4.0,4.0,45,0.00,,,0.00,35,Wunderground v.1.15,2013-04-04 00:20:00,
2013-04-03 19:22:00,48.2,27.8,30.22,SE,141,7.0,7.0,45,0.00,,,0.00,33,Wunderground v.1.15,2013-04-04 00:22:00,
2013-04-03 19:24:00,48.1,27.7,30.22,SE,133,6.0,7.0,45,0.00,,,0.00,30,Wunderground v.1.15,2013-04-04 00:24:00,
2013-04-03 19:26:00,48.1,28.3,30.22,SSE,148,5.0,7.0,46,0.00,,,0.00,30,Wunderground v.1.15,2013-04-04 00:26:00,
2013-04-03 19:27:00,48.0,27.6,30.22,SE,144,5.0,7.0,45,0.00,,,0.00,25,Wunderground v.1.15,2013-04-04 00:27:00,
2013-04-03 19:28:00,48.0,28.2,30.22,SE,144,5.0,7.0,46,0.00,,,0.00,21,Wunderground v.1.15,2013-04-04 00:28:00,
2013-04-03 19:29:00,47.8,28.0,30.21,SE,134,4.0,7.0,46,0.00,,,0.00,19,Wunderground v.1.15,2013-04-04 00:29:00,
2013-04-03 19:32:00,47.6,27.8,30.22,SE,140,5.0,5.0,46,0.00,,,0.00,14,Wunderground v.1.15,2013-04-04 00:32:00,
2013-04-03 19:33:00,47.6,27.3,30.22,SE,144,7.0,7.0,45,0.00,,,0.00,14,Wunderground v.1.15,2013-04-04 00:33:00,
2013-04-03 19:34:00,47.6,27.3,30.22,SE,144,5.0,7.0,45,0.00,,,0.00,12,Wunderground v.1.15,2013-04-04 00:34:00,
2013-04-03 19:37:00,47.2,28.0,30.22,SSE,147,4.0,7.0,47,0.00,,,0.00,9,Wunderground v.1.15,2013-04-04 00:37:00,
2013-04-03 19:39:00,47.0,27.3,30.21,SE,138,5.0,7.0,46,0.00,,,0.00,7,Wunderground v.1.15,2013-04-04 00:39:00,
2013-04-03 19:42:00,46.9,27.2,30.21,SE,138,4.0,5.0,46,0.00,,,0.00,5,Wunderground v.1.15,2013-04-04 00:42:00,
2013-04-03 19:44:00,46.9,27.2,30.21,SE,140,4.0,5.0,46,0.00,,,0.00,5,Wunderground v.1.15,2013-04-04 00:44:00,
2013-04-03 19:45:00,46.9,27.2,30.21,SE,136,5.0,5.0,46,0.00,,,0.00,0,Wunderground v.1.15,2013-04-04 00:45:00,
2013-04-03 19:49:00,46.7,27.0,30.21,ESE,123,5.0,6.0,46,0.00,,,0.00,0,Wunderground v.1.15,2013-04-04 00:49:00,
2013-04-03 19:50:00,46.7,27.0,30.21,SE,133,3.0,4.0,46,0.00,,,0.00,0,Wunderground v.1.15,2013-04-04 00:50:00,
2013-04-03 19:52:00,46.6,26.9,30.21,SE,134,5.0,7.0,46,0.00,,,0.00,0,Wunderground v.1.15,2013-04-04 00:52:00,
2013-04-03 19:55:00,46.6,26.9,30.21,SE,126,4.0,7.0,46,0.00,,,0.00,0,Wunderground v.1.15,2013-04-04 00:55:00,
2013-04-03 19:56:00,46.5,26.8,30.21,SE,134,5.0,7.0,46,0.00,,,0.00,0,Wunderground v.1.15,2013-04-04 00:56:00,
2013-04-03 19:58:00,46.4,26.7,30.21,SE,134,5.0,7.0,46,0.00,,,0.00,0,Wunderground v.1.15,2013-04-04 00:58:00,
2013-04-03 20:00:00,46.3,26.6,30.21,SE,127,3.0,7.0,46,0.00,,,0.00,0,Wunderground v.1.15,2013-04-04 01:00:00,
2013-04-03 20:01:00,46.3,26.6,30.21,SE,128,4.0,5.0,46,0.00,,,0.00,0,Wunderground v.1.15,2013-04-04 01:01:00,
2013-04-03 20:02:00,46.2,26.5,30.21,SE,128,4.0,5.0,46,0.00,,,0.00,0,Wunderground v.1.15,2013-04-04 01:02:00,
2013-04-03 20:03:00,46.3,26.6,30.21,SE,134,4.0,5.0,46,0.00,,,0.00,0,Wunderground v.1.15,2013-04-04 01:03:00,
2013-04-03 20:07:00,46.1,26.4,30.21,SE,136,4.0,5.0,46,0.00,,,0.00,0,Wunderground v.1.15,2013-04-04 01:07:00,
2013-04-03 20:09:00,45.8,26.7,30.21,SE,137,4.0,5.0,47,0.00,,,0.00,0,Wunderground v.1.15,2013-04-04 01:09:00,
2013-04-03 20:12:00,45.6,26.5,30.21,SE,136,4.0,5.0,47,0.00,,,0.00,0,Wunderground v.1.15,2013-04-04 01:12:00,
2013-04-03 20:14:00,45.5,26.4,30.21,SE,132,4.0,6.0,47,0.00,,,0.00,0,Wunderground v.1.15,2013-04-04 01:14:00,
2013-04-03 20:17:00,45.5,25.9,30.21,SE,136,3.0,6.0,46,0.00,,,0.00,0,Wunderground v.1.15,2013-04-04 01:17:00,
2013-04-03 20:18:00,45.5,25.9,30.21,SE,130,4.0,6.0,46,0.00,,,0.00,0,Wunderground v.1.15,2013-04-04 01:18:00,
2013-04-03 20:19:00,45.6,26.0,30.21,SE,130,4.0,6.0,46,0.00,,,0.00,0,Wunderground v.1.15,2013-04-04 01:19:00,
2013-04-03 20:23:00,45.6,26.0,30.21,SE,130,4.0,6.0,46,0.00,,,0.00,0,Wunderground v.1.15,2013-04-04 01:23:00,
2013-04-03 20:26:00,45.6,26.0,30.21,SE,132,4.0,6.0,46,0.00,,,0.00,0,Wunderground v.1.15,2013-04-04 01:26:00,
2013-04-03 20:28:00,45.6,26.0,30.21,SE,136,4.0,6.0,46,0.00,,,0.00,0,Wunderground v.1.15,2013-04-04 01:28:00,
2013-04-03 20:31:00,45.3,25.7,30.21,SE,134,5.0,6.0,46,0.00,,,0.00,0,Wunderground v.1.15,2013-04-04 01:31:00,
2013-04-03 20:32:00,45.3,25.7,30.21,SE,134,5.0,6.0,46,0.00,,,0.00,0,Wunderground v.1.15,2013-04-04 01:32:00,
2013-04-03 20:33:00,45.3,25.7,30.21,SE,133,5.0,6.0,46,0.00,,,0.00,0,Wunderground v.1.15,2013-04-04 01:33:00,
2013-04-03 20:37:00,45.4,25.8,30.21,SE,139,3.0,7.0,46,0.00,,,0.00,0,Wunderground v.1.15,2013-04-04 01:37:00,
2013-04-03 20:38:00,45.3,25.7,30.21,SE,139,4.0,7.0,46,0.00,,,0.00,0,Wunderground v.1.15,2013-04-04 01:38:00,
2013-04-03 20:40:00,45.3,25.7,30.21,SE,136,3.0,5.0,46,0.00,,,0.00,0,Wunderground v.1.15,2013-04-04 01:40:00,
2013-04-03 20:43:00,45.2,25.6,30.21,SE,129,4.0,7.0,46,0.00,,,0.00,0,Wunderground v.1.15,2013-04-04 01:43:00,
2013-04-03 20:45:00,45.2,25.6,30.21,SE,138,6.0,7.0,46,0.00,,,0.00,0,Wunderground v.1.15,2013-04-04 01:45:00,
2013-04-03 20:46:00,45.2,25.6,30.21,SE,135,7.0,7.0,46,0.00,,,0.00,0,Wunderground v.1.15,2013-04-04 01:46:00,
2013-04-03 20:49:00,45.1,25.5,30.21,SE,129,5.0,7.0,46,0.00,,,0.00,0,Wunderground v.1.15,2013-04-04 01:49:00,
2013-04-03 20:52:00,45.0,25.4,30.21,SE,128,4.0,7.0,46,0.00,,,0.00,0,Wunderground v.1.15,2013-04-04 01:52:00,
2013-04-03 20:53:00,45.0,25.4,30.21,SE,126,4.0,7.0,46,0.00,,,0.00,0,Wunderground v.1.15,2013-04-04 01:53:00,
2013-04-03 20:55:00,45.1,25.5,30.21,SE,136,7.0,7.0,46,0.00,,,0.00,0,Wunderground v.1.15,2013-04-04 01:55:00,
2013-04-03 20:58:00,45.1,25.0,30.21,ESE,123,7.0,7.0,45,0.00,,,0.00,0,Wunderground v.1.15,2013-04-04 01:58:00,
2013-04-03 20:59:00,45.1,25.5,30.21,SE,128,5.0,7.0,46,0.00,,,0.00,0,Wunderground v.1.15,2013-04-04 01:59:00,
2013-04-03 21:01:00,45.0,24.9,30.21,SE,134,5.0,6.0,45,0.00,,,0.00,0,Wunderground v.1.15,2013-04-04 02:01:00,
2013-04-03 21:03:00,45.0,24.9,30.21,SE,130,5.0,8.0,45,0.00,,,0.00,0,Wunderground v.1.15,2013-04-04 02:03:00,
2013-04-03 21:04:00,44.9,24.8,30.21,SE,135,7.0,8.0,45,0.00,,,0.00,0,Wunderground v.1.15,2013-04-04 02:04:00,
2013-04-03 21:06:00,44.9,24.8,30.22,SE,128,6.0,8.0,45,0.00,,,0.00,0,Wunderground v.1.15,2013-04-04 02:06:00,
2013-04-03 21:07:00,44.8,24.7,30.22,SE,130,6.0,8.0,45,0.00,,,0.00,0,Wunderground v.1.15,2013-04-04 02:07:00,
2013-04-03 21:08:00,44.8,25.3,30.22,SE,143,5.0,8.0,46,0.00,,,0.00,0,Wunderground v.1.15,2013-04-04 02:08:00,
2013-04-03 21:11:00,44.7,25.2,30.22,SE,144,8.0,8.0,46,0.00,,,0.00,0,Wunderground v.1.15,2013-04-04 02:11:00,
2013-04-03 21:12:00,44.7,25.2,30.22,ESE,121,5.0,8.0,46,0.00,,,0.00,0,Wunderground v.1.15,2013-04-04 02:12:00,
2013-04-03 21:14:00,44.6,25.1,30.22,SE,129,6.0,8.0,46,0.00,,,0.00,0,Wunderground v.1.15,2013-04-04 02:14:00,
2013-04-03 21:15:00,44.6,25.1,30.22,ESE,123,4.0,8.0,46,0.00,,,0.00,0,Wunderground v.1.15,2013-04-04 02:15:00,
2013-04-03 21:16:00,44.6,25.1,30.22,ESE,119,5.0,8.0,46,0.00,,,0.00,0,Wunderground v.1.15,2013-04-04 02:16:00,
2013-04-03 21:17:00,44.4,24.9,30.22,SE,133,7.0,8.0,46,0.00,,,0.00,0,Wunderground v.1.15,2013-04-04 02:17:00,
2013-04-03 21:21:00,44.3,24.8,30.22,ESE,118,4.0,7.0,46,0.00,,,0.00,0,Wunderground v.1.15,2013-04-04 02:21:00,
2013-04-03 21:22:00,44.2,24.7,30.22,SE,131,8.0,8.0,46,0.00,,,0.00,0,Wunderground v.1.15,2013-04-04 02:22:00,
2013-04-03 21:23:00,44.2,24.7,30.22,ESE,114,7.0,8.0,46,0.00,,,0.00,0,Wunderground v.1.15,2013-04-04 02:23:00,
2013-04-03 21:25:00,43.9,24.4,30.22,SE,126,5.0,8.0,46,0.00,,,0.00,0,Wunderground v.1.15,2013-04-04 02:25:00,
2013-04-03 21:27:00,43.9,24.4,30.22,SE,132,5.0,8.0,46,0.00,,,0.00,0,Wunderground v.1.15,2013-04-04 02:27:00,
2013-04-03 21:28:00,44.0,24.5,30.22,ESE,113,5.0,8.0,46,0.00,,,0.00,0,Wunderground v.1.15,2013-04-04 02:28:00,
2013-04-03 21:29:00,44.0,24.5,30.22,SE,128,5.0,8.0,46,0.00,,,0.00,0,Wunderground v.1.15,2013-04-04 02:29:00,
2013-04-03 21:30:00,43.9,24.4,30.22,ESE,121,7.0,9.0,46,0.00,,,0.00,0,Wunderground v.1.15,2013-04-04 02:30:00,
2013-04-03 21:34:00,43.8,24.9,30.22,ESE,123,7.0,9.0,47,0.00,,,0.00,0,Wunderground v.1.15,2013-04-04 02:34:00,
2013-04-03 21:35:00,43.7,24.8,30.22,SE,130,6.0,9.0,47,0.00,,,0.00,0,Wunderground v.1.15,2013-04-04 02:35:00,
2013-04-03 21:36:00,43.7,24.2,30.22,SE,132,4.0,9.0,46,0.00,,,0.00,0,Wunderground v.1.15,2013-04-04 02:36:00,
2013-04-03 21:37:00,43.7,24.2,30.22,SE,127,5.0,9.0,46,0.00,,,0.00,0,Wunderground v.1.15,2013-04-04 02:37:00,
2013-04-03 21:40:00,43.6,24.2,30.22,SE,126,6.0,6.0,46,0.00,,,0.00,0,Wunderground v.1.15,2013-04-04 02:40:00,
2013-04-03 21:42:00,43.6,24.7,30.22,ESE,117,7.0,8.0,47,0.00,,,0.00,0,Wunderground v.1.15,2013-04-04 02:42:00,
2013-04-03 21:44:00,43.5,24.6,30.22,SE,128,4.0,8.0,47,0.00,,,0.00,0,Wunderground v.1.15,2013-04-04 02:44:00,
2013-04-03 21:45:00,43.4,24.5,30.22,SE,124,5.0,8.0,47,0.00,,,0.00,0,Wunderground v.1.15,2013-04-04 02:45:00,
2013-04-03 21:48:00,43.2,24.3,30.22,SE,128,4.0,8.0,47,0.00,,,0.00,0,Wunderground v.1.15,2013-04-04 02:48:00,
2013-04-03 21:49:00,43.2,24.3,30.22,SE,146,8.0,8.0,47,0.00,,,0.00,0,Wunderground v.1.15,2013-04-04 02:49:00,
2013-04-03 21:54:00,43.2,24.3,30.22,SE,130,4.0,8.0,47,0.00,,,0.00,0,Wunderground v.1.15,2013-04-04 02:54:00,
2013-04-03 21:55:00,43.1,24.7,30.22,SE,124,6.0,8.0,48,0.00,,,0.00,0,Wunderground v.1.15,2013-04-04 02:55:00,
2013-04-03 21:59:00,42.9,24.5,30.22,ESE,121,8.0,8.0,48,0.00,,,0.00,0,Wunderground v.1.15,2013-04-04 02:59:00,
2013-04-03 22:00:00,42.9,24.5,30.22,ESE,118,5.0,8.0,48,0.00,,,0.00,0,Wunderground v.1.15,2013-04-04 03:00:00,
2013-04-03 22:01:00,42.9,24.5,30.22,ESE,123,4.0,5.0,48,0.00,,,0.00,0,Wunderground v.1.15,2013-04-04 03:01:00,
2013-04-03 22:05:00,42.6,24.3,30.22,SE,129,4.0,7.0,48,0.00,,,0.00,0,Wunderground v.1.15,2013-04-04 03:05:00,
2013-04-03 22:06:00,42.5,24.7,30.22,ESE,121,5.0,7.0,49,0.00,,,0.00,0,Wunderground v.1.15,2013-04-04 03:06:00,
2013-04-03 22:07:00,42.4,24.6,30.22,SE,127,4.0,7.0,49,0.00,,,0.00,0,Wunderground v.1.15,2013-04-04 03:07:00,
2013-04-03 22:10:00,42.3,24.5,30.22,SE,127,4.0,4.0,49,0.00,,,0.00,0,Wunderground v.1.15,2013-04-04 03:10:00,
2013-04-03 22:12:00,42.2,24.4,30.22,SE,127,2.0,4.0,49,0.00,,,0.00,0,Wunderground v.1.15,2013-04-04 03:12:00,
2013-04-03 22:13:00,42.0,24.2,30.22,SE,127,3.0,4.0,49,0.00,,,0.00,0,Wunderground v.1.15,2013-04-04 03:13:00,
2013-04-03 22:16:00,41.6,24.3,30.22,ESE,122,5.0,5.0,50,0.00,,,0.00,0,Wunderground v.1.15,2013-04-04 03:16:00,
2013-04-03 22:17:00,41.6,24.3,30.22,SE,126,4.0,5.0,50,0.00,,,0.00,0,Wunderground v.1.15,2013-04-04 03:17:00,
2013-04-03 22:20:00,41.5,24.2,30.22,SE,130,5.0,5.0,50,0.00,,,0.00,0,Wunderground v.1.15,2013-04-04 03:20:00,
2013-04-03 22:24:00,41.5,24.7,30.22,SE,133,2.0,5.0,51,0.00,,,0.00,0,Wunderground v.1.15,2013-04-04 03:24:00,
2013-04-03 22:25:00,41.4,24.6,30.22,SE,134,3.0,5.0,51,0.00,,,0.00,0,Wunderground v.1.15,2013-04-04 03:25:00,
2013-04-03 22:27:00,41.3,24.5,30.22,SE,134,4.0,5.0,51,0.00,,,0.00,0,Wunderground v.1.15,2013-04-04 03:27:00,
2013-04-03 22:31:00,41.1,24.8,30.22,SE,133,3.0,3.0,52,0.00,,,0.00,0,Wunderground v.1.15,2013-04-04 03:31:00,
2013-04-03 22:33:00,41.0,24.7,30.22,SE,133,3.0,3.0,52,0.00,,,0.00,0,Wunderground v.1.15,2013-04-04 03:33:00,
2013-04-03 22:34:00,40.8,24.5,30.22,SE,133,2.0,3.0,52,0.00,,,0.00,0,Wunderground v.1.15,2013-04-04 03:34:00,
2013-04-03 22:38:00,40.1,24.3,30.22,SE,133,2.0,3.0,53,0.00,,,0.00,0,Wunderground v.1.15,2013-04-04 03:38:00,
2013-04-03 22:39:00,39.9,24.6,30.22,SE,133,2.0,3.0,54,0.00,,,0.00,0,Wunderground v.1.15,2013-04-04 03:39:00,
2013-04-03 22:42:00,39.7,24.4,30.22,SE,133,2.0,3.0,54,0.00,,,0.00,0,Wunderground v.1.15,2013-04-04 03:42:00,
2013-04-03 22:43:00,39.7,24.4,30.22,SE,133,4.0,4.0,54,0.00,,,0.00,0,Wunderground v.1.15,2013-04-04 03:43:00,
2013-04-03 22:45:00,39.7,24.4,30.22,SE,133,2.0,4.0,54,0.00,,,0.00,0,Wunderground v.1.15,2013-04-04 03:45:00,
2013-04-03 22:49:00,40.0,24.7,30.22,SE,127,2.0,4.0,54,0.00,,,0.00,0,Wunderground v.1.15,2013-04-04 03:49:00,
2013-04-03 22:50:00,40.0,24.7,30.22,SE,127,3.0,3.0,54,0.00,,,0.00,0,Wunderground v.1.15,2013-04-04 03:50:00,
2013-04-03 22:52:00,39.9,24.6,30.22,SE,127,2.0,3.0,54,0.00,,,0.00,0,Wunderground v.1.15,2013-04-04 03:52:00,
2013-04-03 22:54:00,39.7,24.4,30.22,SE,127,1.0,3.0,54,0.00,,,0.00,0,Wunderground v.1.15,2013-04-04 03:54:00,
2013-04-03 22:55:00,39.6,24.7,30.22,SE,127,1.0,3.0,55,0.00,,,0.00,0,Wunderground v.1.15,2013-04-04 03:55:00,
2013-04-03 22:58:00,39.0,24.6,30.22,SE,127,0.0,3.0,56,0.00,,,0.00,0,Wunderground v.1.15,2013-04-04 03:58:00,
2013-04-03 22:59:00,38.9,24.9,30.22,SE,127,0.0,3.0,57,0.00,,,0.00,0,Wunderground v.1.15,2013-04-04 03:59:00,
2013-04-03 23:00:00,38.5,24.6,30.22,SE,127,0.0,1.0,57,0.00,,,0.00,0,Wunderground v.1.15,2013-04-04 04:00:00,
2013-04-03 23:01:00,38.1,24.2,30.22,SE,127,0.0,1.0,57,0.00,,,0.00,0,Wunderground v.1.15,2013-04-04 04:01:00,
2013-04-03 23:05:00,37.1,24.1,30.22,SE,127,0.0,1.0,59,0.00,,,0.00,0,Wunderground v.1.15,2013-04-04 04:05:00,
2013-04-03 23:06:00,36.9,24.3,30.22,SE,127,0.0,1.0,60,0.00,,,0.00,0,Wunderground v.1.15,2013-04-04 04:06:00,
2013-04-03 23:07:00,36.6,24.4,30.22,SE,127,0.0,1.0,61,0.00,,,0.00,0,Wunderground v.1.15,2013-04-04 04:07:00,
2013-04-03 23:10:00,36.2,24.4,30.22,SE,127,1.0,1.0,62,0.00,,,0.00,0,Wunderground v.1.15,2013-04-04 04:10:00,
2013-04-03 23:12:00,36.1,24.3,30.22,SE,127,2.0,2.0,62,0.00,,,0.00,0,Wunderground v.1.15,2013-04-04 04:12:00,
2013-04-03 23:13:00,36.1,24.7,30.22,SE,127,1.0,2.0,63,0.00,,,0.00,0,Wunderground v.1.15,2013-04-04 04:13:00,
2013-04-03 23:15:00,36.3,24.5,30.22,SE,127,2.0,2.0,62,0.00,,,0.00,0,Wunderground v.1.15,2013-04-04 04:15:00,
2013-04-03 23:17:00,36.5,24.7,30.22,SE,127,2.0,2.0,62,0.00,,,0.00,0,Wunderground v.1.15,2013-04-04 04:17:00,
2013-04-03 23:20:00,36.7,24.9,30.21,SE,127,3.0,3.0,62,0.00,,,0.00,0,Wunderground v.1.15,2013-04-04 04:20:00,
2013-04-03 23:23:00,36.6,24.8,30.21,SE,127,2.0,3.0,62,0.00,,,0.00,0,Wunderground v.1.15,2013-04-04 04:23:00,
2013-04-03 23:24:00,36.5,24.7,30.21,SE,127,2.0,3.0,62,0.00,,,0.00,0,Wunderground v.1.15,2013-04-04 04:24:00,
2013-04-03 23:26:00,36.4,24.6,30.21,SE,127,2.0,3.0,62,0.00,,,0.00,0,Wunderground v.1.15,2013-04-04 04:26:00,
2013-04-03 23:29:00,36.3,24.9,30.21,SE,127,3.0,3.0,63,0.00,,,0.00,0,Wunderground v.1.15,2013-04-04 04:29:00,
2013-04-03 23:30:00,36.1,24.7,30.21,SE,127,1.0,2.0,63,0.00,,,0.00,0,Wunderground v.1.15,2013-04-04 04:30:00,
2013-04-03 23:33:00,35.9,24.9,30.22,SE,127,0.0,2.0,64,0.00,,,0.00,0,Wunderground v.1.15,2013-04-04 04:33:00,
2013-04-03 23:35:00,35.7,24.7,30.21,SE,127,1.0,2.0,64,0.00,,,0.00,0,Wunderground v.1.15,2013-04-04 04:35:00,
2013-04-03 23:36:00,35.7,24.7,30.21,SE,127,1.0,2.0,64,0.00,,,0.00,0,Wunderground v.1.15,2013-04-04 04:36:00,
2013-04-03 23:37:00,35.7,24.7,30.22,SE,127,1.0,2.0,64,0.00,,,0.00,0,Wunderground v.1.15,2013-04-04 04:37:00,
2013-04-03 23:39:00,35.8,24.8,30.22,SE,127,1.0,2.0,64,0.00,,,0.00,0,Wunderground v.1.15,2013-04-04 04:39:00,
2013-04-03 23:41:00,35.7,24.7,30.21,SE,127,0.0,1.0,64,0.00,,,0.00,0,Wunderground v.1.15,2013-04-04 04:41:00,
2013-04-03 23:43:00,35.6,25.0,30.21,SE,127,0.0,1.0,65,0.00,,,0.00,0,Wunderground v.1.15,2013-04-04 04:43:00,
2013-04-03 23:44:00,35.4,24.8,30.21,SE,127,0.0,1.0,65,0.00,,,0.00,0,Wunderground v.1.15,2013-04-04 04:44:00,
2013-04-03 23:45:00,35.3,24.7,30.21,SE,127,0.0,1.0,65,0.00,,,0.00,0,Wunderground v.1.15,2013-04-04 04:45:00,
2013-04-03 23:46:00,35.1,24.5,30.21,SE,127,1.0,1.0,65,0.00,,,0.00,0,Wunderground v.1.15,2013-04-04 04:46:00,
2013-04-03 23:49:00,34.8,24.6,30.21,SE,127,2.0,2.0,66,0.00,,,0.00,0,Wunderground v.1.15,2013-04-04 04:49:00,
2013-04-03 23:50:00,34.8,24.6,30.21,SE,127,3.0,3.0,66,0.00,,,0.00,0,Wunderground v.1.15,2013-04-04 04:50:00,
2013-04-03 23:52:00,35.1,25.2,30.21,SE,127,2.0,3.0,67,0.00,,,0.00,0,Wunderground v.1.15,2013-04-04 04:52:00,
2013-04-03 23:53:00,35.2,25.0,30.21,SE,127,1.0,3.0,66,0.00,,,0.00,0,Wunderground v.1.15,2013-04-04 04:53:00,
2013-04-03 23:55:00,35.3,25.1,30.21,SE,127,1.0,3.0,66,0.00,,,0.00,0,Wunderground v.1.15,2013-04-04 04:55:00,
2013-04-03 23:57:00,35.3,25.1,30.21,SE,127,1.0,3.0,66,0.00,,,0.00,0,Wunderground v.1.15,2013-04-04 04:57:00,
2013-04-03 23:58:00,35.3,25.1,30.21,SE,127,1.0,3.0,66,0.00,,,0.00,0,Wunderground v.1.15,2013-04-04 04:58:00,